GFSWCAN_prec_precacc_015.txt.gz
Total_Precipitation_Accumulation
0.28 0.11 0.01 0.00 0.00 0.00 0.00 0.00 0.00 0.00 0.00 0.00 0.00 0.00 0.00 0.00 0.00 0.00 0.00 0.02 0.04 0.01 0.00 0.00 0.00 0.00 0.00 0.00 0.01 0.00 0.00 0.00 0.00 0.00 0.00 0.00 0.00 0.00 0.00 0.00 0.00 0.00 0.00 0.00 0.01 0.04 0.01 0.00 0.01 0.04 0.03 0.02 0.03 0.01
0.30 0.25 0.09 0.01 0.00 0.00 0.00 0.00 0.00 0.00 0.00 0.00 0.00 0.00 0.00 0.00 0.00 0.00 0.00 0.01 0.03 0.03 0.01 0.00 0.00 0.00 0.00 0.00 0.01 0.01 0.01 0.01 0.01 0.00 0.00 0.00 0.00 0.00 0.00 0.00 0.00 0.00 0.00 0.00 0.01 0.01 0.00 0.00 0.00 0.00 0.01 0.01 0.01 0.01
0.25 0.26 0.24 0.09 0.01 0.00 0.00 0.00 0.00 0.00 0.00 0.00 0.00 0.00 0.00 0.00 0.00 0.00 0.00 0.01 0.02 0.01 0.00 0.00 0.00 0.00 0.00 0.00 0.01 0.03 0.00 0.02 0.03 0.03 0.04 0.04 0.06 0.03 0.03 0.01 0.00 0.02 0.00 0.00 0.01 0.00 0.00 0.00 0.00 0.00 0.01 0.04 0.06 0.11
0.24 0.27 0.28 0.21 0.09 0.02 0.00 0.00 0.00 0.00 0.00 0.00 0.00 0.00 0.00 0.00 0.00 0.00 0.00 0.02 0.04 0.03 0.02 0.00 0.00 0.00 0.00 0.00 0.00 0.01 0.02 0.03 0.08 0.11 0.13 0.12 0.14 0.06 0.04 0.01 0.02 0.03 0.03 0.01 0.01 0.00 0.00 0.00 0.01 0.06 0.15 0.24 0.24 0.18
0.10 0.25 0.28 0.26 0.23 0.12 0.04 0.00 0.00 0.00 0.00 0.01 0.01 0.01 0.00 0.00 0.01 0.01 0.01 0.01 0.03 0.08 0.04 0.01 0.00 0.00 0.00 0.00 0.00 0.00 0.02 0.05 0.10 0.10 0.06 0.01 0.01 0.01 0.02 0.03 0.07 0.02 0.00 0.01 0.01 0.01 0.07 0.07 0.18 0.36 0.28 0.20 0.21 0.15
0.03 0.13 0.21 0.20 0.24 0.25 0.14 0.06 0.00 0.00 0.01 0.01 0.01 0.01 0.02 0.01 0.04 0.07 0.06 0.01 0.00 0.05 0.27 0.13 0.01 0.00 0.00 0.00 0.00 0.00 0.00 0.03 0.07 0.04 0.01 0.01 0.00 0.03 0.09 0.05 0.00 0.00 0.00 0.03 0.04 0.04 0.13 0.21 0.20 0.13 0.13 0.10 0.05 0.01
0.00 0.01 0.11 0.17 0.20 0.30 0.32 0.16 0.08 0.01 0.00 0.00 0.01 0.02 0.06 0.15 0.24 0.25 0.15 0.04 0.00 0.09 0.35 0.23 0.03 0.00 0.00 0.00 0.00 0.00 0.00 0.02 0.04 0.04 0.02 0.01 0.01 0.15 0.18 0.07 0.00 0.00 0.02 0.02 0.03 0.08 0.10 0.12 0.11 0.06 0.02 0.00 0.00 0.00
0.00 0.00 0.02 0.07 0.08 0.12 0.23 0.30 0.18 0.12 0.05 0.03 0.02 0.08 0.29 0.66 0.62 0.39 0.23 0.26 0.25 0.28 0.46 0.37 0.10 0.02 0.00 0.00 0.00 0.00 0.00 0.00 0.02 0.03 0.04 0.04 0.02 0.10 0.19 0.03 0.00 0.00 0.00 0.01 0.01 0.02 0.06 0.06 0.01 0.00 0.00 0.00 0.00 0.00
0.00 0.00 0.00 0.00 0.02 0.03 0.07 0.16 0.23 0.23 0.23 0.24 0.31 0.37 0.45 0.39 0.26 0.30 0.47 0.58 0.79 0.86 0.79 0.32 0.05 0.02 0.04 0.02 0.02 0.02 0.01 0.03 0.04 0.03 0.01 0.02 0.02 0.03 0.02 0.00 0.00 0.00 0.01 0.00 0.00 0.00 0.00 0.00 0.00 0.00 0.00 0.00 0.00 0.00
0.00 0.00 0.00 0.00 0.00 0.01 0.02 0.07 0.17 0.28 0.41 0.56 0.58 0.57 0.51 0.41 0.47 0.38 0.43 0.54 0.75 0.79 0.62 0.26 0.06 0.04 0.02 0.02 0.03 0.06 0.12 0.10 0.09 0.01 0.00 0.01 0.01 0.00 0.00 0.00 0.00 0.00 0.00 0.00 0.01 0.02 0.01 0.00 0.00 0.00 0.00 0.00 0.00 0.00
0.00 0.00 0.00 0.00 0.00 0.00 0.01 0.04 0.15 0.27 0.37 0.39 0.47 0.48 0.42 0.36 0.30 0.44 0.51 0.35 0.32 0.24 0.17 0.09 0.05 0.04 0.03 0.07 0.15 0.20 0.16 0.07 0.06 0.00 0.03 0.02 0.00 0.00 0.00 0.00 0.00 0.02 0.02 0.01 0.00 0.00 0.00 0.00 0.00 0.00 0.00 0.00 0.00 0.00
0.00 0.00 0.00 0.00 0.00 0.01 0.02 0.05 0.11 0.12 0.19 0.29 0.28 0.31 0.34 0.33 0.28 0.27 0.26 0.12 0.05 0.03 0.01 0.00 0.00 0.02 0.09 0.08 0.08 0.17 0.09 0.08 0.04 0.01 0.05 0.04 0.00 0.00 0.00 0.01 0.02 0.01 0.01 0.00 0.00 0.00 0.00 0.00 0.00 0.00 0.00 0.00 0.00 0.00
0.00 0.00 0.00 0.00 0.00 0.01 0.02 0.04 0.03 0.05 0.07 0.06 0.06 0.16 0.15 0.12 0.10 0.06 0.04 0.04 0.01 0.01 0.01 0.00 0.01 0.02 0.06 0.07 0.11 0.08 0.05 0.04 0.02 0.03 0.01 0.00 0.00 0.01 0.01 0.01 0.00 0.00 0.00 0.00 0.00 0.00 0.00 0.00 0.00 0.00 0.00 0.00 0.00 0.00
0.01 0.01 0.01 0.00 0.00 0.00 0.02 0.02 0.01 0.01 0.02 0.03 0.03 0.05 0.03 0.04 0.01 0.02 0.01 0.00 0.00 0.00 0.01 0.01 0.03 0.02 0.02 0.04 0.03 0.02 0.03 0.02 0.04 0.01 0.00 0.00 0.00 0.00 0.00 0.00 0.00 0.00 0.00 0.00 0.00 0.00 0.00 0.00 0.00 0.00 0.00 0.00 0.00 0.00
0.03 0.02 0.03 0.02 0.00 0.00 0.01 0.01 0.01 0.01 0.00 0.00 0.00 0.00 0.00 0.00 0.00 0.00 0.00 0.00 0.00 0.00 0.02 0.06 0.09 0.05 0.02 0.02 0.01 0.01 0.02 0.01 0.00 0.00 0.00 0.00 0.00 0.00 0.00 0.00 0.00 0.00 0.00 0.00 0.00 0.00 0.00 0.00 0.00 0.00 0.00 0.00 0.00 0.00
0.06 0.04 0.04 0.03 0.01 0.00 0.00 0.01 0.01 0.00 0.00 0.00 0.00 0.00 0.00 0.00 0.00 0.00 0.00 0.00 0.00 0.03 0.01 0.01 0.01 0.01 0.02 0.01 0.02 0.00 0.00 0.00 0.00 0.00 0.00 0.00 0.00 0.00 0.00 0.00 0.00 0.00 0.00 0.00 0.00 0.00 0.00 0.00 0.00 0.00 0.00 0.00 0.01 0.01
0.10 0.02 0.04 0.04 0.02 0.00 0.00 0.00 0.00 0.00 0.00 0.00 0.00 0.00 0.00 0.00 0.00 0.00 0.00 0.00 0.00 0.01 0.00 0.00 0.00 0.00 0.00 0.01 0.00 0.00 0.00 0.00 0.00 0.00 0.00 0.00 0.00 0.00 0.00 0.00 0.00 0.00 0.00 0.00 0.00 0.00 0.00 0.00 0.00 0.00 0.01 0.01 0.01 0.00
0.08 0.01 0.01 0.02 0.02 0.01 0.01 0.00 0.00 0.00 0.00 0.00 0.00 0.00 0.00 0.00 0.00 0.00 0.00 0.00 0.01 0.00 0.00 0.00 0.00 0.00 0.00 0.00 0.00 0.00 0.00 0.00 0.00 0.00 0.00 0.00 0.00 0.00 0.00 0.00 0.00 0.00 0.00 0.00 0.00 0.00 0.00 0.00 0.01 0.01 0.01 0.00 0.00 0.00
0.05 0.01 0.01 0.01 0.01 0.01 0.01 0.00 0.00 0.00 0.00 0.00 0.00 0.00 0.00 0.00 0.00 0.00 0.00 0.00 0.00 0.00 0.00 0.00 0.00 0.00 0.00 0.00 0.00 0.00 0.00 0.00 0.00 0.00 0.00 0.00 0.00 0.00 0.00 0.00 0.00 0.00 0.00 0.00 0.00 0.01 0.01 0.02 0.01 0.00 0.00 0.01 0.03 0.03
0.19 0.16 0.05 0.04 0.01 0.00 0.00 0.00 0.00 0.00 0.00 0.00 0.00 0.00 0.00 0.00 0.00 0.00 0.00 0.00 0.00 0.02 0.05 0.03 0.00 0.00 0.00 0.00 0.00 0.00 0.00 0.00 0.00 0.00 0.00 0.00 0.00 0.00 0.00 0.00 0.00 0.00 0.00 0.01 0.02 0.03 0.01 0.01 0.00 0.00 0.02 0.07 0.11 0.08
0.28 0.30 0.14 0.05 0.04 0.01 0.00 0.00 0.00 0.00 0.00 0.00 0.00 0.00 0.00 0.00 0.00 0.00 0.00 0.00 0.01 0.01 0.00 0.00 0.00 0.00 0.00 0.00 0.00 0.00 0.00 0.00 0.00 0.01 0.01 0.00 0.00 0.00 0.00 0.00 0.00 0.00 0.02 0.02 0.01 0.00 0.00 0.00 0.00 0.01 0.04 0.09 0.12 0.15
0.15 0.11 0.08 0.07 0.02 0.00 0.00 0.00 0.00 0.00 0.00 0.00 0.00 0.00 0.00 0.00 0.00 0.00 0.00 0.01 0.01 0.00 0.00 0.00 0.00 0.00 0.00 0.00 0.00 0.00 0.00 0.00 0.00 0.00 0.00 0.00 0.01 0.01 0.01 0.00 0.02 0.01 0.00 0.00 0.00 0.01 0.01 0.02 0.04 0.06 0.06 0.05 0.07 0.09
0.02 0.01 0.00 0.00 0.00 0.00 0.00 0.00 0.01 0.00 0.00 0.00 0.00 0.00 0.00 0.00 0.00 0.00 0.00 0.00 0.00 0.00 0.00 0.00 0.00 0.00 0.00 0.00 0.00 0.00 0.00 0.00 0.00 0.00 0.00 0.03 0.03 0.02 0.01 0.00 0.00 0.01 0.01 0.00 0.00 0.02 0.03 0.06 0.08 0.08 0.08 0.08 0.05 0.04
0.00 0.01 0.01 0.00 0.00 0.01 0.00 0.01 0.01 0.00 0.00 0.00 0.00 0.00 0.00 0.00 0.00 0.00 0.00 0.00 0.00 0.00 0.00 0.00 0.00 0.00 0.00 0.00 0.00 0.00 0.00 0.02 0.02 0.00 0.04 0.05 0.01 0.00 0.00 0.00 0.00 0.00 0.01 0.01 0.01 0.05 0.09 0.10 0.10 0.09 0.08 0.08 0.07 0.06
0.08 0.07 0.03 0.02 0.01 0.01 0.01 0.01 0.01 0.01 0.00 0.00 0.00 0.00 0.00 0.00 0.00 0.00 0.00 0.00 0.00 0.00 0.00 0.00 0.00 0.00 0.00 0.00 0.00 0.00 0.01 0.04 0.01 0.00 0.00 0.00 0.01 0.01 0.00 0.00 0.00 0.00 0.01 0.03 0.09 0.12 0.10 0.08 0.07 0.06 0.04 0.03 0.03 0.03
0.09 0.02 0.00 0.00 0.01 0.00 0.00 0.00 0.00 0.00 0.00 0.00 0.00 0.00 0.00 0.01 0.00 0.00 0.00 0.00 0.00 0.00 0.00 0.00 0.00 0.00 0.00 0.00 0.00 0.00 0.01 0.01 0.00 0.00 0.00 0.00 0.00 0.01 0.01 0.01 0.01 0.01 0.01 0.03 0.07 0.06 0.03 0.02 0.01 0.02 0.02 0.02 0.03 0.05
0.06 0.01 0.01 0.00 0.00 0.00 0.00 0.00 0.00 0.01 0.01 0.00 0.00 0.01 0.02 0.02 0.00 0.00 0.00 0.00 0.00 0.00 0.00 0.00 0.00 0.00 0.00 0.00 0.00 0.01 0.00 0.00 0.00 0.00 0.00 0.00 0.00 0.02 0.05 0.07 0.05 0.03 0.03 0.04 0.04 0.05 0.05 0.04 0.03 0.03 0.04 0.03 0.02 0.04
0.00 0.00 0.00 0.01 0.00 0.00 0.00 0.00 0.01 0.00 0.00 0.00 0.00 0.00 0.01 0.00 0.00 0.00 0.00 0.00 0.00 0.00 0.00 0.00 0.01 0.01 0.01 0.00 0.00 0.00 0.00 0.00 0.01 0.01 0.01 0.01 0.02 0.02 0.03 0.03 0.04 0.04 0.03 0.02 0.04 0.05 0.07 0.08 0.09 0.08 0.07 0.05 0.02 0.02
0.00 0.00 0.00 0.00 0.01 0.02 0.01 0.00 0.00 0.00 0.00 0.00 0.00 0.00 0.00 0.00 0.00 0.00 0.00 0.00 0.01 0.00 0.00 0.00 0.00 0.00 0.00 0.00 0.00 0.02 0.04 0.05 0.05 0.03 0.02 0.01 0.01 0.02 0.02 0.01 0.02 0.03 0.02 0.02 0.03 0.06 0.09 0.11 0.09 0.08 0.07 0.06 0.06 0.08
0.00 0.00 0.00 0.00 0.00 0.00 0.00 0.00 0.00 0.00 0.01 0.01 0.01 0.03 0.01 0.00 0.00 0.00 0.00 0.00 0.00 0.01 0.00 0.01 0.01 0.01 0.02 0.03 0.02 0.02 0.04 0.05 0.07 0.11 0.09 0.05 0.03 0.02 0.01 0.02 0.02 0.03 0.04 0.06 0.05 0.03 0.06 0.10 0.11 0.12 0.12 0.15 0.18 0.20
0.00 0.01 0.00 0.01 0.00 0.00 0.00 0.01 0.01 0.00 0.00 0.00 0.00 0.02 0.01 0.00 0.01 0.00 0.00 0.00 0.01 0.01 0.01 0.01 0.03 0.05 0.06 0.05 0.07 0.08 0.09 0.10 0.09 0.08 0.08 0.06 0.04 0.04 0.03 0.02 0.02 0.03 0.03 0.05 0.05 0.05 0.07 0.10 0.14 0.15 0.16 0.16 0.16 0.14
0.02 0.01 0.01 0.01 0.01 0.01 0.04 0.02 0.02 0.01 0.00 0.00 0.00 0.00 0.00 0.01 0.03 0.08 0.05 0.01 0.01 0.03 0.05 0.07 0.08 0.11 0.14 0.13 0.13 0.13 0.10 0.10 0.09 0.08 0.07 0.06 0.05 0.04 0.03 0.02 0.03 0.03 0.03 0.03 0.03 0.03 0.04 0.05 0.07 0.06 0.05 0.05 0.05 0.05
0.02 0.02 0.03 0.02 0.01 0.00 0.00 0.03 0.03 0.01 0.00 0.00 0.00 0.01 0.01 0.06 0.18 0.18 0.09 0.08 0.12 0.14 0.16 0.17 0.18 0.18 0.19 0.17 0.16 0.14 0.11 0.10 0.08 0.06 0.05 0.03 0.02 0.01 0.01 0.02 0.03 0.04 0.04 0.04 0.03 0.02 0.02 0.01 0.02 0.03 0.04 0.05 0.05 0.05

GFSWCAN_prec_precacc_021.txt.gz
Total_Precipitation_Accumulation
0.48 0.15 0.02 0.00 0.00 0.00 0.00 0.00 0.00 0.00 0.00 0.00 0.00 0.00 0.00 0.00 0.00 0.00 0.00 0.02 0.04 0.01 0.00 0.00 0.00 0.00 0.00 0.00 0.01 0.00 0.00 0.00 0.00 0.00 0.00 0.00 0.00 0.00 0.00 0.00 0.00 0.00 0.00 0.00 0.01 0.05 0.01 0.00 0.01 0.06 0.05 0.02 0.03 0.02
0.50 0.34 0.10 0.02 0.00 0.00 0.00 0.00 0.00 0.00 0.00 0.00 0.00 0.00 0.00 0.00 0.00 0.00 0.00 0.01 0.03 0.03 0.01 0.00 0.00 0.00 0.00 0.00 0.01 0.01 0.01 0.01 0.01 0.00 0.00 0.00 0.00 0.00 0.00 0.00 0.00 0.00 0.00 0.00 0.02 0.01 0.00 0.00 0.00 0.01 0.02 0.02 0.01 0.02
0.41 0.37 0.27 0.09 0.01 0.00 0.00 0.00 0.00 0.00 0.00 0.00 0.00 0.00 0.00 0.00 0.00 0.00 0.00 0.01 0.02 0.01 0.00 0.00 0.00 0.00 0.00 0.00 0.01 0.03 0.00 0.02 0.03 0.03 0.04 0.04 0.07 0.03 0.03 0.01 0.00 0.02 0.00 0.00 0.01 0.00 0.00 0.01 0.01 0.00 0.01 0.05 0.07 0.13
0.33 0.40 0.33 0.22 0.10 0.02 0.00 0.00 0.00 0.00 0.00 0.00 0.00 0.00 0.00 0.00 0.00 0.00 0.00 0.02 0.04 0.04 0.03 0.00 0.00 0.00 0.00 0.00 0.00 0.01 0.02 0.03 0.08 0.11 0.13 0.13 0.15 0.06 0.04 0.01 0.02 0.03 0.04 0.02 0.02 0.00 0.01 0.01 0.02 0.08 0.18 0.26 0.24 0.18
0.11 0.30 0.35 0.29 0.24 0.12 0.04 0.00 0.00 0.00 0.00 0.01 0.01 0.01 0.00 0.00 0.01 0.01 0.01 0.01 0.03 0.08 0.05 0.01 0.00 0.00 0.00 0.00 0.00 0.00 0.02 0.05 0.10 0.10 0.07 0.02 0.01 0.01 0.02 0.03 0.07 0.02 0.01 0.04 0.03 0.05 0.10 0.12 0.23 0.42 0.32 0.21 0.21 0.15
0.03 0.13 0.22 0.22 0.25 0.25 0.14 0.06 0.00 0.00 0.01 0.01 0.01 0.02 0.02 0.01 0.04 0.07 0.06 0.01 0.00 0.05 0.27 0.13 0.01 0.00 0.00 0.00 0.00 0.00 0.00 0.03 0.07 0.04 0.02 0.01 0.00 0.04 0.09 0.05 0.01 0.00 0.00 0.04 0.06 0.05 0.15 0.27 0.25 0.14 0.13 0.10 0.05 0.01
0.00 0.01 0.11 0.17 0.20 0.31 0.33 0.17 0.08 0.02 0.00 0.00 0.02 0.02 0.06 0.15 0.25 0.26 0.15 0.04 0.00 0.09 0.36 0.23 0.03 0.00 0.00 0.00 0.00 0.00 0.00 0.02 0.05 0.04 0.02 0.01 0.01 0.17 0.23 0.10 0.01 0.00 0.02 0.02 0.03 0.09 0.13 0.13 0.11 0.06 0.02 0.00 0.00 0.00
0.00 0.00 0.02 0.07 0.08 0.12 0.26 0.35 0.21 0.13 0.06 0.03 0.03 0.09 0.31 0.68 0.62 0.41 0.23 0.26 0.25 0.28 0.46 0.38 0.11 0.02 0.00 0.00 0.00 0.00 0.00 0.00 0.02 0.03 0.04 0.04 0.03 0.11 0.20 0.04 0.00 0.00 0.00 0.01 0.01 0.03 0.07 0.06 0.01 0.00 0.00 0.00 0.00 0.00
0.00 0.00 0.00 0.00 0.02 0.03 0.08 0.21 0.33 0.30 0.27 0.27 0.36 0.44 0.51 0.43 0.28 0.31 0.47 0.58 0.79 0.86 0.80 0.33 0.05 0.02 0.04 0.02 0.02 0.02 0.01 0.03 0.04 0.03 0.01 0.02 0.02 0.04 0.02 0.00 0.00 0.00 0.01 0.00 0.00 0.00 0.00 0.00 0.00 0.00 0.00 0.00 0.00 0.00
0.00 0.00 0.00 0.00 0.00 0.01 0.02 0.10 0.27 0.47 0.79 1.15 1.13 0.87 0.64 0.49 0.58 0.44 0.47 0.61 0.84 0.87 0.66 0.28 0.06 0.04 0.02 0.02 0.04 0.07 0.12 0.11 0.09 0.01 0.00 0.01 0.01 0.00 0.00 0.00 0.00 0.00 0.00 0.00 0.01 0.02 0.01 0.00 0.00 0.00 0.00 0.00 0.00 0.00
0.00 0.00 0.00 0.00 0.00 0.00 0.01 0.07 0.24 0.67 1.27 1.50 1.43 1.03 0.66 0.58 0.38 0.55 0.72 0.56 0.45 0.32 0.24 0.14 0.08 0.05 0.03 0.08 0.16 0.25 0.20 0.08 0.07 0.00 0.03 0.03 0.01 0.00 0.00 0.00 0.00 0.02 0.02 0.01 0.00 0.00 0.00 0.00 0.00 0.00 0.00 0.00 0.00 0.00
0.00 0.00 0.00 0.00 0.00 0.01 0.02 0.09 0.27 0.49 0.91 1.04 0.78 0.62 0.60 0.64 0.58 0.67 0.66 0.36 0.18 0.09 0.04 0.02 0.03 0.05 0.15 0.16 0.20 0.32 0.16 0.10 0.05 0.01 0.06 0.04 0.00 0.00 0.00 0.01 0.02 0.01 0.01 0.00 0.00 0.00 0.00 0.00 0.00 0.00 0.00 0.00 0.00 0.00
0.00 0.00 0.00 0.00 0.01 0.02 0.03 0.07 0.12 0.24 0.40 0.59 0.61 0.78 0.77 0.71 0.58 0.40 0.23 0.12 0.04 0.02 0.02 0.01 0.05 0.09 0.15 0.17 0.21 0.14 0.10 0.08 0.03 0.03 0.02 0.00 0.00 0.01 0.01 0.01 0.00 0.00 0.00 0.00 0.00 0.00 0.00 0.00 0.00 0.00 0.00 0.00 0.00 0.00
0.02 0.01 0.01 0.00 0.00 0.02 0.04 0.07 0.11 0.14 0.17 0.40 0.56 0.60 0.44 0.47 0.28 0.14 0.04 0.01 0.00 0.01 0.01 0.02 0.06 0.06 0.06 0.10 0.09 0.06 0.07 0.04 0.06 0.02 0.00 0.00 0.00 0.00 0.00 0.00 0.00 0.00 0.00 0.00 0.00 0.00 0.00 0.00 0.00 0.00 0.00 0.00 0.00 0.00
0.06 0.02 0.03 0.03 0.01 0.02 0.10 0.09 0.11 0.04 0.02 0.09 0.16 0.27 0.24 0.23 0.14 0.06 0.04 0.02 0.01 0.02 0.03 0.07 0.11 0.06 0.06 0.08 0.06 0.04 0.05 0.02 0.00 0.00 0.00 0.00 0.00 0.00 0.00 0.00 0.00 0.00 0.00 0.00 0.00 0.00 0.00 0.00 0.00 0.00 0.00 0.00 0.00 0.00
0.13 0.06 0.05 0.04 0.02 0.02 0.09 0.07 0.08 0.08 0.05 0.00 0.04 0.10 0.10 0.12 0.12 0.08 0.05 0.04 0.03 0.05 0.04 0.05 0.05 0.06 0.08 0.06 0.05 0.02 0.02 0.00 0.00 0.00 0.00 0.00 0.00 0.00 0.00 0.00 0.00 0.00 0.00 0.00 0.00 0.00 0.00 0.00 0.00 0.00 0.00 0.00 0.01 0.01
0.25 0.07 0.05 0.05 0.03 0.02 0.04 0.15 0.03 0.00 0.03 0.00 0.00 0.01 0.03 0.05 0.04 0.03 0.02 0.03 0.03 0.06 0.04 0.02 0.02 0.02 0.03 0.03 0.01 0.00 0.00 0.00 0.00 0.00 0.00 0.00 0.00 0.00 0.00 0.00 0.00 0.00 0.00 0.00 0.00 0.00 0.00 0.00 0.00 0.00 0.01 0.01 0.01 0.00
0.29 0.04 0.02 0.02 0.02 0.07 0.09 0.05 0.03 0.00 0.00 0.00 0.00 0.00 0.00 0.00 0.00 0.00 0.00 0.00 0.01 0.00 0.00 0.00 0.00 0.00 0.00 0.00 0.00 0.00 0.00 0.00 0.00 0.00 0.00 0.00 0.00 0.00 0.00 0.00 0.00 0.00 0.00 0.00 0.00 0.00 0.00 0.00 0.01 0.01 0.01 0.00 0.00 0.00
0.13 0.04 0.03 0.02 0.03 0.06 0.17 0.09 0.01 0.00 0.00 0.00 0.00 0.00 0.00 0.00 0.00 0.00 0.00 0.00 0.00 0.00 0.00 0.00 0.00 0.00 0.00 0.00 0.00 0.00 0.00 0.00 0.00 0.00 0.00 0.00 0.00 0.00 0.00 0.00 0.00 0.00 0.00 0.00 0.00 0.01 0.01 0.02 0.01 0.00 0.00 0.01 0.03 0.03
0.30 0.33 0.15 0.07 0.07 0.05 0.06 0.02 0.00 0.00 0.00 0.00 0.00 0.00 0.00 0.00 0.00 0.00 0.00 0.00 0.00 0.02 0.06 0.03 0.00 0.00 0.00 0.00 0.00 0.00 0.00 0.00 0.00 0.00 0.00 0.00 0.00 0.00 0.00 0.00 0.00 0.00 0.00 0.01 0.02 0.03 0.01 0.01 0.00 0.00 0.02 0.07 0.12 0.09
0.54 0.77 0.45 0.13 0.13 0.03 0.01 0.00 0.00 0.00 0.00 0.00 0.00 0.00 0.00 0.00 0.00 0.00 0.00 0.00 0.01 0.02 0.01 0.00 0.00 0.00 0.00 0.00 0.00 0.00 0.00 0.00 0.00 0.01 0.01 0.00 0.00 0.00 0.00 0.00 0.00 0.00 0.02 0.02 0.01 0.00 0.00 0.00 0.00 0.01 0.04 0.09 0.13 0.16
0.41 0.49 0.42 0.17 0.06 0.00 0.00 0.00 0.00 0.00 0.00 0.00 0.00 0.00 0.00 0.00 0.00 0.00 0.00 0.01 0.01 0.00 0.00 0.00 0.00 0.00 0.00 0.00 0.00 0.00 0.00 0.00 0.00 0.00 0.00 0.00 0.01 0.01 0.01 0.00 0.02 0.01 0.00 0.00 0.00 0.01 0.02 0.02 0.04 0.07 0.07 0.06 0.08 0.10
0.23 0.32 0.33 0.13 0.06 0.01 0.00 0.00 0.01 0.00 0.00 0.00 0.00 0.00 0.00 0.00 0.00 0.00 0.00 0.00 0.00 0.00 0.00 0.00 0.00 0.00 0.00 0.00 0.00 0.00 0.00 0.00 0.00 0.00 0.00 0.03 0.03 0.02 0.01 0.00 0.01 0.01 0.02 0.00 0.00 0.02 0.04 0.07 0.09 0.09 0.08 0.08 0.06 0.05
0.16 0.23 0.24 0.12 0.02 0.01 0.00 0.01 0.01 0.00 0.00 0.00 0.00 0.00 0.00 0.00 0.01 0.01 0.00 0.00 0.00 0.00 0.00 0.00 0.00 0.00 0.00 0.00 0.00 0.00 0.00 0.02 0.02 0.00 0.04 0.05 0.01 0.00 0.00 0.00 0.00 0.01 0.01 0.01 0.02 0.06 0.09 0.11 0.11 0.10 0.10 0.10 0.08 0.07
0.23 0.20 0.09 0.07 0.02 0.01 0.01 0.01 0.01 0.01 0.00 0.00 0.00 0.00 0.00 0.01 0.00 0.00 0.00 0.00 0.00 0.00 0.00 0.00 0.00 0.00 0.00 0.00 0.00 0.00 0.01 0.04 0.01 0.00 0.01 0.01 0.02 0.02 0.00 0.00 0.01 0.01 0.01 0.04 0.10 0.14 0.11 0.09 0.08 0.07 0.06 0.04 0.05 0.05
0.12 0.04 0.01 0.00 0.01 0.00 0.00 0.00 0.01 0.00 0.01 0.00 0.01 0.00 0.00 0.01 0.00 0.00 0.00 0.00 0.00 0.00 0.00 0.00 0.00 0.00 0.00 0.00 0.00 0.00 0.01 0.01 0.00 0.00 0.00 0.01 0.02 0.02 0.01 0.01 0.01 0.02 0.01 0.04 0.08 0.07 0.04 0.02 0.02 0.02 0.03 0.03 0.04 0.06
0.06 0.01 0.01 0.00 0.00 0.00 0.00 0.00 0.00 0.01 0.01 0.00 0.00 0.01 0.02 0.02 0.00 0.00 0.00 0.00 0.00 0.00 0.00 0.00 0.00 0.00 0.00 0.00 0.00 0.01 0.00 0.00 0.00 0.00 0.00 0.00 0.01 0.03 0.09 0.13 0.09 0.06 0.05 0.06 0.07 0.08 0.07 0.05 0.05 0.05 0.06 0.04 0.03 0.06
0.00 0.00 0.01 0.01 0.00 0.00 0.00 0.00 0.01 0.00 0.00 0.00 0.00 0.00 0.01 0.00 0.00 0.00 0.00 0.00 0.00 0.00 0.00 0.00 0.01 0.01 0.01 0.00 0.00 0.00 0.00 0.00 0.01 0.01 0.01 0.01 0.06 0.09 0.10 0.10 0.10 0.08 0.07 0.07 0.07 0.09 0.11 0.11 0.11 0.10 0.09 0.07 0.04 0.04
0.00 0.00 0.00 0.00 0.01 0.02 0.01 0.00 0.00 0.00 0.00 0.00 0.00 0.00 0.00 0.00 0.00 0.01 0.00 0.00 0.01 0.00 0.00 0.00 0.00 0.00 0.00 0.00 0.00 0.03 0.06 0.06 0.06 0.04 0.03 0.04 0.11 0.11 0.08 0.07 0.08 0.08 0.07 0.06 0.07 0.11 0.13 0.13 0.11 0.09 0.08 0.08 0.07 0.09
0.00 0.00 0.00 0.00 0.00 0.00 0.00 0.00 0.00 0.00 0.01 0.01 0.01 0.03 0.01 0.01 0.01 0.01 0.00 0.01 0.00 0.01 0.01 0.01 0.02 0.02 0.02 0.03 0.03 0.04 0.07 0.07 0.10 0.15 0.15 0.11 0.09 0.08 0.07 0.06 0.06 0.06 0.07 0.09 0.07 0.05 0.07 0.10 0.11 0.13 0.13 0.15 0.19 0.20
0.01 0.01 0.01 0.01 0.00 0.00 0.00 0.01 0.01 0.00 0.00 0.00 0.00 0.02 0.02 0.01 0.02 0.01 0.01 0.01 0.01 0.01 0.01 0.02 0.04 0.06 0.07 0.07 0.09 0.10 0.12 0.13 0.13 0.13 0.13 0.12 0.09 0.08 0.07 0.05 0.05 0.05 0.06 0.08 0.07 0.06 0.07 0.11 0.14 0.16 0.16 0.17 0.16 0.14
0.02 0.02 0.02 0.02 0.01 0.01 0.04 0.02 0.02 0.01 0.00 0.00 0.00 0.00 0.01 0.02 0.04 0.09 0.05 0.01 0.02 0.03 0.06 0.08 0.09 0.12 0.16 0.16 0.16 0.17 0.15 0.14 0.12 0.11 0.10 0.10 0.09 0.08 0.06 0.05 0.05 0.06 0.05 0.05 0.05 0.05 0.04 0.06 0.08 0.06 0.05 0.05 0.05 0.06
0.02 0.03 0.04 0.03 0.01 0.00 0.00 0.03 0.03 0.01 0.00 0.00 0.00 0.01 0.02 0.07 0.18 0.19 0.09 0.08 0.13 0.15 0.16 0.18 0.19 0.20 0.22 0.20 0.18 0.16 0.13 0.12 0.11 0.09 0.07 0.06 0.05 0.04 0.03 0.04 0.05 0.06 0.06 0.06 0.05 0.04 0.03 0.02 0.02 0.03 0.05 0.05 0.05 0.05

GFSWCAN_prec_precacc_024.txt.gz
Total_Precipitation_Accumulation
0.48 0.15 0.02 0.00 0.00 0.00 0.00 0.00 0.00 0.00 0.00 0.00 0.00 0.00 0.00 0.00 0.00 0.00 0.00 0.02 0.04 0.01 0.00 0.00 0.00 0.00 0.00 0.00 0.01 0.00 0.00 0.00 0.00 0.00 0.00 0.00 0.00 0.00 0.00 0.00 0.00 0.00 0.00 0.01 0.02 0.05 0.01 0.00 0.01 0.06 0.05 0.02 0.04 0.02
0.52 0.34 0.10 0.02 0.00 0.00 0.00 0.00 0.00 0.00 0.00 0.00 0.00 0.00 0.00 0.00 0.00 0.00 0.00 0.01 0.03 0.03 0.01 0.00 0.00 0.00 0.00 0.00 0.01 0.01 0.01 0.01 0.01 0.00 0.00 0.00 0.00 0.00 0.00 0.00 0.00 0.00 0.00 0.00 0.02 0.01 0.00 0.00 0.01 0.01 0.02 0.03 0.01 0.02
0.50 0.39 0.27 0.09 0.01 0.00 0.00 0.00 0.00 0.00 0.00 0.00 0.00 0.00 0.00 0.00 0.00 0.00 0.00 0.01 0.02 0.01 0.00 0.00 0.00 0.00 0.00 0.00 0.01 0.03 0.00 0.02 0.03 0.03 0.04 0.04 0.07 0.03 0.03 0.01 0.00 0.02 0.00 0.00 0.01 0.00 0.00 0.01 0.01 0.00 0.01 0.05 0.07 0.13
0.50 0.47 0.35 0.22 0.10 0.02 0.00 0.00 0.00 0.00 0.00 0.00 0.00 0.00 0.00 0.00 0.00 0.00 0.00 0.02 0.04 0.04 0.04 0.00 0.00 0.00 0.00 0.00 0.00 0.01 0.02 0.03 0.08 0.11 0.13 0.13 0.15 0.06 0.04 0.01 0.02 0.03 0.04 0.02 0.03 0.01 0.01 0.02 0.03 0.08 0.18 0.26 0.24 0.18
0.27 0.42 0.44 0.31 0.24 0.12 0.04 0.00 0.00 0.00 0.01 0.01 0.01 0.01 0.00 0.00 0.01 0.01 0.01 0.01 0.03 0.08 0.05 0.01 0.00 0.00 0.00 0.00 0.00 0.00 0.02 0.05 0.10 0.10 0.07 0.02 0.01 0.01 0.02 0.03 0.07 0.02 0.01 0.04 0.04 0.05 0.10 0.12 0.23 0.42 0.32 0.21 0.21 0.15
0.12 0.20 0.32 0.29 0.27 0.26 0.14 0.06 0.00 0.00 0.01 0.01 0.01 0.02 0.02 0.01 0.04 0.07 0.06 0.01 0.00 0.05 0.28 0.14 0.01 0.00 0.00 0.00 0.00 0.00 0.00 0.03 0.08 0.04 0.02 0.01 0.00 0.04 0.09 0.05 0.01 0.00 0.00 0.04 0.06 0.05 0.15 0.27 0.25 0.14 0.13 0.10 0.05 0.01
0.02 0.04 0.16 0.22 0.25 0.32 0.33 0.17 0.08 0.02 0.01 0.01 0.02 0.02 0.06 0.15 0.25 0.26 0.15 0.04 0.00 0.09 0.36 0.24 0.04 0.00 0.00 0.00 0.00 0.00 0.00 0.02 0.05 0.06 0.03 0.01 0.01 0.18 0.23 0.10 0.01 0.00 0.02 0.02 0.03 0.09 0.13 0.13 0.11 0.06 0.02 0.00 0.00 0.00
0.00 0.00 0.03 0.08 0.10 0.14 0.26 0.35 0.21 0.13 0.06 0.03 0.03 0.09 0.31 0.68 0.62 0.42 0.23 0.26 0.25 0.28 0.46 0.38 0.11 0.02 0.00 0.00 0.00 0.00 0.00 0.00 0.03 0.04 0.04 0.04 0.03 0.11 0.20 0.04 0.00 0.00 0.00 0.01 0.01 0.03 0.08 0.06 0.01 0.00 0.00 0.00 0.00 0.00
0.00 0.00 0.00 0.00 0.02 0.03 0.08 0.21 0.33 0.30 0.27 0.27 0.36 0.45 0.51 0.43 0.29 0.32 0.47 0.58 0.79 0.87 0.80 0.33 0.05 0.03 0.04 0.02 0.02 0.02 0.02 0.03 0.05 0.03 0.01 0.02 0.02 0.04 0.02 0.00 0.00 0.00 0.01 0.00 0.00 0.00 0.00 0.00 0.00 0.00 0.00 0.00 0.00 0.00
0.00 0.00 0.00 0.00 0.00 0.01 0.02 0.10 0.27 0.47 0.83 1.21 1.17 0.91 0.68 0.51 0.60 0.44 0.47 0.62 0.84 0.87 0.66 0.28 0.06 0.04 0.02 0.02 0.04 0.07 0.13 0.11 0.09 0.01 0.00 0.01 0.01 0.00 0.00 0.00 0.00 0.00 0.00 0.00 0.01 0.02 0.01 0.00 0.00 0.00 0.00 0.00 0.00 0.00
0.00 0.00 0.00 0.00 0.00 0.00 0.01 0.07 0.25 0.68 1.36 1.74 1.60 1.12 0.72 0.68 0.40 0.57 0.73 0.56 0.45 0.32 0.24 0.15 0.08 0.05 0.03 0.08 0.16 0.25 0.20 0.08 0.07 0.00 0.03 0.03 0.01 0.00 0.00 0.00 0.00 0.02 0.02 0.01 0.00 0.00 0.00 0.00 0.00 0.00 0.00 0.00 0.00 0.00
0.00 0.00 0.00 0.00 0.00 0.01 0.02 0.10 0.29 0.50 0.93 1.16 0.93 0.72 0.70 0.81 0.77 0.86 0.80 0.39 0.18 0.09 0.04 0.02 0.03 0.05 0.16 0.16 0.20 0.32 0.18 0.13 0.07 0.01 0.07 0.04 0.00 0.00 0.00 0.01 0.02 0.01 0.01 0.00 0.00 0.00 0.00 0.00 0.00 0.00 0.00 0.00 0.00 0.00
0.00 0.00 0.00 0.00 0.01 0.02 0.03 0.07 0.12 0.25 0.44 0.68 0.82 1.05 1.06 1.09 0.95 0.69 0.36 0.16 0.05 0.02 0.02 0.02 0.05 0.10 0.15 0.18 0.26 0.22 0.20 0.16 0.05 0.04 0.02 0.00 0.00 0.01 0.01 0.01 0.00 0.00 0.00 0.00 0.00 0.00 0.00 0.00 0.00 0.00 0.00 0.00 0.00 0.00
0.02 0.01 0.01 0.00 0.00 0.03 0.04 0.08 0.11 0.14 0.18 0.48 0.73 0.90 0.73 0.74 0.48 0.27 0.11 0.02 0.01 0.01 0.01 0.02 0.07 0.08 0.09 0.14 0.18 0.17 0.16 0.08 0.09 0.04 0.00 0.00 0.00 0.00 0.00 0.00 0.00 0.00 0.00 0.00 0.00 0.00 0.00 0.00 0.00 0.00 0.00 0.00 0.00 0.00
0.06 0.02 0.03 0.03 0.01 0.02 0.10 0.09 0.11 0.04 0.02 0.10 0.21 0.38 0.37 0.34 0.22 0.12 0.10 0.05 0.04 0.05 0.08 0.12 0.16 0.11 0.11 0.15 0.14 0.11 0.12 0.08 0.04 0.03 0.03 0.00 0.00 0.00 0.00 0.00 0.00 0.00 0.00 0.00 0.00 0.00 0.00 0.00 0.00 0.00 0.00 0.00 0.00 0.00
0.13 0.06 0.05 0.04 0.02 0.02 0.10 0.07 0.09 0.09 0.05 0.00 0.05 0.12 0.15 0.15 0.17 0.16 0.12 0.10 0.09 0.13 0.11 0.11 0.11 0.13 0.17 0.13 0.11 0.09 0.09 0.07 0.06 0.01 0.00 0.00 0.00 0.00 0.00 0.00 0.00 0.00 0.00 0.00 0.00 0.00 0.00 0.00 0.00 0.00 0.00 0.00 0.01 0.01
0.25 0.08 0.06 0.05 0.03 0.02 0.04 0.16 0.06 0.01 0.03 0.00 0.00 0.01 0.04 0.07 0.06 0.05 0.05 0.06 0.06 0.12 0.11 0.08 0.06 0.08 0.08 0.08 0.05 0.03 0.04 0.03 0.00 0.00 0.00 0.00 0.00 0.00 0.00 0.00 0.00 0.00 0.00 0.00 0.00 0.00 0.00 0.00 0.00 0.00 0.01 0.01 0.01 0.00
0.29 0.05 0.02 0.02 0.02 0.07 0.09 0.07 0.06 0.00 0.00 0.00 0.00 0.00 0.00 0.00 0.00 0.00 0.00 0.00 0.01 0.01 0.01 0.02 0.01 0.01 0.01 0.01 0.01 0.01 0.00 0.00 0.00 0.00 0.00 0.00 0.00 0.00 0.00 0.00 0.00 0.00 0.00 0.00 0.00 0.00 0.00 0.00 0.01 0.01 0.01 0.01 0.01 0.01
0.13 0.05 0.03 0.04 0.03 0.07 0.20 0.11 0.01 0.00 0.00 0.00 0.00 0.00 0.00 0.00 0.00 0.00 0.00 0.00 0.00 0.00 0.00 0.00 0.00 0.00 0.00 0.00 0.00 0.00 0.00 0.00 0.00 0.00 0.00 0.00 0.00 0.00 0.00 0.00 0.00 0.00 0.00 0.00 0.00 0.01 0.01 0.02 0.01 0.00 0.00 0.01 0.04 0.04
0.30 0.33 0.18 0.17 0.09 0.06 0.07 0.03 0.00 0.00 0.00 0.00 0.00 0.00 0.00 0.00 0.00 0.00 0.00 0.00 0.00 0.02 0.06 0.03 0.00 0.00 0.00 0.00 0.00 0.00 0.00 0.00 0.00 0.00 0.00 0.00 0.00 0.00 0.00 0.00 0.00 0.00 0.00 0.01 0.02 0.03 0.01 0.01 0.00 0.01 0.04 0.09 0.13 0.09
0.55 0.80 0.55 0.20 0.18 0.10 0.02 0.00 0.00 0.00 0.00 0.00 0.00 0.00 0.00 0.00 0.00 0.00 0.00 0.00 0.01 0.02 0.01 0.00 0.00 0.00 0.00 0.00 0.00 0.00 0.00 0.00 0.00 0.01 0.01 0.00 0.00 0.00 0.00 0.00 0.00 0.00 0.02 0.02 0.02 0.00 0.00 0.01 0.01 0.03 0.06 0.10 0.13 0.16
0.46 0.52 0.60 0.32 0.14 0.04 0.02 0.01 0.00 0.00 0.00 0.00 0.00 0.00 0.00 0.00 0.00 0.00 0.00 0.01 0.01 0.00 0.00 0.00 0.00 0.00 0.00 0.00 0.00 0.00 0.00 0.00 0.00 0.00 0.00 0.00 0.01 0.01 0.01 0.00 0.02 0.01 0.01 0.01 0.01 0.02 0.02 0.03 0.06 0.08 0.07 0.06 0.08 0.11
0.32 0.44 0.52 0.36 0.13 0.03 0.02 0.01 0.01 0.00 0.00 0.00 0.00 0.00 0.00 0.00 0.00 0.00 0.01 0.00 0.00 0.00 0.00 0.00 0.00 0.00 0.00 0.00 0.00 0.00 0.00 0.00 0.00 0.00 0.00 0.03 0.03 0.02 0.02 0.01 0.02 0.03 0.03 0.01 0.02 0.04 0.05 0.08 0.09 0.09 0.09 0.10 0.07 0.06
0.33 0.40 0.42 0.30 0.07 0.02 0.01 0.01 0.01 0.00 0.00 0.00 0.01 0.00 0.00 0.00 0.01 0.01 0.00 0.00 0.00 0.00 0.00 0.00 0.00 0.00 0.00 0.00 0.00 0.00 0.00 0.02 0.02 0.00 0.04 0.06 0.02 0.01 0.02 0.02 0.02 0.03 0.04 0.03 0.03 0.06 0.09 0.11 0.12 0.11 0.11 0.11 0.08 0.08
0.45 0.33 0.20 0.15 0.04 0.01 0.02 0.01 0.01 0.01 0.00 0.00 0.00 0.00 0.00 0.01 0.00 0.00 0.00 0.00 0.00 0.00 0.00 0.00 0.00 0.00 0.00 0.00 0.00 0.00 0.01 0.04 0.01 0.00 0.01 0.02 0.03 0.03 0.02 0.02 0.02 0.02 0.02 0.05 0.11 0.14 0.12 0.10 0.09 0.08 0.06 0.05 0.06 0.06
0.25 0.11 0.04 0.02 0.01 0.00 0.00 0.00 0.01 0.00 0.01 0.00 0.01 0.00 0.01 0.01 0.00 0.00 0.00 0.01 0.00 0.00 0.00 0.00 0.00 0.00 0.00 0.00 0.00 0.00 0.01 0.01 0.00 0.00 0.00 0.01 0.02 0.03 0.03 0.03 0.03 0.03 0.05 0.08 0.14 0.12 0.07 0.04 0.04 0.04 0.04 0.05 0.06 0.08
0.08 0.02 0.01 0.00 0.00 0.00 0.00 0.01 0.01 0.01 0.01 0.00 0.00 0.01 0.02 0.02 0.00 0.00 0.00 0.00 0.00 0.01 0.01 0.01 0.01 0.00 0.00 0.00 0.00 0.01 0.00 0.00 0.00 0.01 0.00 0.00 0.02 0.06 0.15 0.20 0.18 0.14 0.09 0.11 0.13 0.14 0.13 0.10 0.09 0.08 0.09 0.06 0.05 0.09
0.01 0.00 0.01 0.01 0.00 0.00 0.00 0.00 0.01 0.00 0.00 0.00 0.00 0.00 0.01 0.00 0.00 0.00 0.00 0.00 0.01 0.01 0.00 0.00 0.01 0.01 0.01 0.01 0.00 0.01 0.01 0.00 0.01 0.01 0.01 0.03 0.08 0.11 0.11 0.11 0.12 0.10 0.09 0.10 0.12 0.13 0.16 0.16 0.14 0.13 0.13 0.11 0.07 0.06
0.00 0.00 0.00 0.00 0.01 0.02 0.01 0.00 0.00 0.00 0.00 0.00 0.00 0.00 0.00 0.00 0.01 0.01 0.01 0.01 0.01 0.00 0.00 0.00 0.00 0.00 0.00 0.00 0.00 0.04 0.06 0.07 0.06 0.04 0.03 0.04 0.12 0.11 0.09 0.08 0.09 0.09 0.08 0.08 0.09 0.14 0.17 0.16 0.14 0.12 0.11 0.11 0.09 0.11
0.00 0.00 0.01 0.00 0.00 0.01 0.00 0.00 0.00 0.00 0.01 0.01 0.01 0.03 0.01 0.01 0.02 0.01 0.01 0.01 0.01 0.01 0.01 0.02 0.02 0.02 0.02 0.03 0.03 0.04 0.09 0.08 0.11 0.16 0.16 0.12 0.10 0.09 0.07 0.07 0.07 0.07 0.08 0.10 0.09 0.06 0.10 0.13 0.14 0.16 0.15 0.16 0.19 0.21
0.01 0.01 0.01 0.01 0.01 0.00 0.01 0.01 0.01 0.00 0.00 0.00 0.00 0.03 0.04 0.02 0.03 0.01 0.01 0.01 0.02 0.01 0.01 0.02 0.04 0.06 0.07 0.07 0.09 0.11 0.12 0.14 0.13 0.14 0.14 0.12 0.10 0.09 0.07 0.05 0.05 0.06 0.07 0.09 0.09 0.09 0.10 0.13 0.18 0.19 0.18 0.18 0.16 0.15
0.02 0.02 0.02 0.02 0.01 0.02 0.04 0.02 0.02 0.02 0.00 0.01 0.01 0.01 0.02 0.02 0.04 0.10 0.06 0.02 0.02 0.03 0.06 0.08 0.10 0.13 0.16 0.16 0.17 0.18 0.15 0.15 0.13 0.12 0.11 0.10 0.10 0.08 0.07 0.06 0.06 0.06 0.06 0.06 0.07 0.08 0.08 0.09 0.11 0.09 0.08 0.06 0.06 0.06
0.02 0.03 0.04 0.03 0.01 0.00 0.00 0.03 0.03 0.01 0.00 0.00 0.01 0.01 0.03 0.07 0.19 0.19 0.10 0.09 0.13 0.15 0.17 0.18 0.19 0.21 0.22 0.20 0.19 0.17 0.13 0.12 0.11 0.09 0.08 0.06 0.05 0.04 0.04 0.04 0.05 0.07 0.07 0.08 0.07 0.07 0.06 0.05 0.05 0.06 0.06 0.06 0.06 0.05

GFSWCAN_prec_precacc_030.txt.gz
Total_Precipitation_Accumulation
0.49 0.15 0.02 0.00 0.00 0.00 0.00 0.00 0.00 0.00 0.00 0.00 0.00 0.00 0.00 0.00 0.00 0.00 0.00 0.02 0.04 0.01 0.00 0.00 0.00 0.00 0.00 0.00 0.01 0.00 0.00 0.00 0.00 0.00 0.00 0.00 0.00 0.00 0.00 0.00 0.00 0.00 0.00 0.01 0.02 0.05 0.01 0.00 0.01 0.06 0.05 0.02 0.04 0.02
0.52 0.34 0.10 0.02 0.00 0.00 0.00 0.00 0.00 0.00 0.00 0.00 0.00 0.00 0.00 0.00 0.00 0.00 0.00 0.01 0.03 0.03 0.01 0.00 0.00 0.00 0.00 0.00 0.01 0.01 0.01 0.01 0.01 0.00 0.00 0.00 0.00 0.00 0.00 0.00 0.00 0.00 0.00 0.00 0.02 0.01 0.00 0.00 0.01 0.01 0.02 0.03 0.01 0.02
0.50 0.39 0.27 0.09 0.01 0.00 0.00 0.00 0.00 0.00 0.00 0.00 0.00 0.00 0.00 0.00 0.00 0.00 0.00 0.01 0.02 0.01 0.00 0.00 0.00 0.00 0.00 0.00 0.01 0.03 0.00 0.02 0.03 0.03 0.04 0.04 0.07 0.03 0.03 0.01 0.00 0.02 0.00 0.00 0.01 0.00 0.00 0.01 0.01 0.00 0.01 0.05 0.07 0.13
0.57 0.48 0.35 0.22 0.10 0.02 0.00 0.00 0.00 0.00 0.01 0.01 0.01 0.01 0.00 0.00 0.00 0.00 0.00 0.02 0.04 0.04 0.04 0.00 0.00 0.00 0.00 0.00 0.00 0.01 0.02 0.03 0.08 0.11 0.13 0.14 0.15 0.06 0.04 0.01 0.02 0.03 0.04 0.02 0.03 0.01 0.01 0.02 0.03 0.08 0.18 0.26 0.24 0.18
0.50 0.50 0.46 0.31 0.24 0.12 0.04 0.00 0.00 0.01 0.01 0.02 0.02 0.02 0.00 0.00 0.01 0.01 0.01 0.01 0.03 0.08 0.05 0.01 0.00 0.00 0.00 0.00 0.00 0.00 0.02 0.05 0.10 0.10 0.07 0.02 0.01 0.01 0.02 0.03 0.07 0.02 0.01 0.04 0.04 0.05 0.10 0.12 0.23 0.42 0.32 0.21 0.21 0.15
0.45 0.41 0.40 0.31 0.27 0.26 0.14 0.06 0.01 0.01 0.02 0.02 0.02 0.02 0.02 0.01 0.04 0.07 0.06 0.01 0.00 0.05 0.28 0.14 0.01 0.00 0.00 0.00 0.00 0.00 0.00 0.03 0.08 0.04 0.02 0.01 0.00 0.04 0.09 0.05 0.01 0.00 0.00 0.04 0.06 0.05 0.15 0.27 0.25 0.14 0.13 0.10 0.05 0.01
0.34 0.30 0.29 0.28 0.27 0.32 0.33 0.17 0.09 0.02 0.01 0.01 0.02 0.03 0.06 0.15 0.25 0.26 0.15 0.04 0.00 0.09 0.36 0.24 0.04 0.00 0.00 0.00 0.00 0.00 0.00 0.02 0.05 0.06 0.03 0.01 0.01 0.19 0.23 0.10 0.01 0.00 0.02 0.02 0.03 0.09 0.13 0.13 0.11 0.06 0.02 0.00 0.00 0.00
0.23 0.21 0.17 0.16 0.14 0.15 0.26 0.35 0.22 0.14 0.06 0.04 0.03 0.09 0.31 0.68 0.62 0.42 0.23 0.26 0.25 0.28 0.46 0.38 0.11 0.02 0.00 0.00 0.00 0.00 0.00 0.00 0.03 0.04 0.04 0.04 0.03 0.12 0.21 0.04 0.00 0.00 0.00 0.01 0.01 0.03 0.08 0.06 0.01 0.00 0.00 0.00 0.00 0.00
0.07 0.08 0.08 0.06 0.04 0.04 0.09 0.22 0.33 0.30 0.28 0.27 0.36 0.45 0.51 0.43 0.29 0.32 0.47 0.58 0.79 0.87 0.80 0.33 0.05 0.03 0.04 0.02 0.02 0.02 0.02 0.03 0.05 0.03 0.01 0.02 0.02 0.04 0.02 0.00 0.00 0.00 0.01 0.00 0.00 0.00 0.00 0.01 0.01 0.00 0.00 0.00 0.00 0.00
0.01 0.01 0.01 0.01 0.01 0.01 0.02 0.11 0.28 0.47 0.84 1.22 1.17 0.91 0.68 0.51 0.60 0.44 0.47 0.62 0.84 0.87 0.66 0.28 0.06 0.04 0.02 0.02 0.04 0.07 0.13 0.11 0.09 0.01 0.00 0.01 0.01 0.00 0.00 0.00 0.00 0.00 0.00 0.00 0.01 0.02 0.02 0.01 0.00 0.00 0.00 0.00 0.00 0.00
0.00 0.00 0.00 0.00 0.00 0.00 0.01 0.07 0.26 0.73 1.50 1.84 1.64 1.13 0.73 0.70 0.40 0.57 0.73 0.56 0.45 0.32 0.24 0.15 0.08 0.05 0.03 0.08 0.16 0.25 0.20 0.08 0.07 0.00 0.03 0.03 0.01 0.00 0.00 0.00 0.00 0.02 0.02 0.01 0.01 0.00 0.00 0.01 0.00 0.00 0.00 0.00 0.00 0.00
0.00 0.00 0.00 0.00 0.00 0.01 0.03 0.10 0.30 0.51 0.98 1.31 1.05 0.80 0.76 0.86 0.86 0.92 0.84 0.40 0.18 0.09 0.04 0.02 0.03 0.05 0.16 0.16 0.20 0.32 0.18 0.13 0.07 0.01 0.07 0.05 0.00 0.00 0.00 0.01 0.02 0.01 0.01 0.01 0.03 0.03 0.01 0.00 0.00 0.00 0.00 0.00 0.00 0.00
0.00 0.00 0.00 0.00 0.01 0.02 0.03 0.07 0.12 0.27 0.48 0.76 0.96 1.31 1.41 1.51 1.30 0.94 0.44 0.19 0.08 0.03 0.02 0.02 0.05 0.10 0.15 0.18 0.30 0.28 0.26 0.21 0.07 0.07 0.04 0.00 0.00 0.01 0.02 0.01 0.00 0.00 0.01 0.02 0.01 0.00 0.00 0.00 0.00 0.00 0.00 0.00 0.00 0.00
0.02 0.01 0.01 0.00 0.00 0.03 0.04 0.08 0.11 0.14 0.19 0.52 0.85 1.14 0.97 0.98 0.62 0.37 0.14 0.05 0.03 0.02 0.02 0.03 0.09 0.10 0.12 0.18 0.30 0.37 0.37 0.19 0.19 0.09 0.02 0.06 0.08 0.04 0.01 0.00 0.00 0.00 0.00 0.00 0.00 0.00 0.00 0.00 0.00 0.00 0.00 0.00 0.00 0.00
0.06 0.02 0.03 0.03 0.01 0.02 0.10 0.09 0.11 0.04 0.02 0.10 0.21 0.42 0.43 0.38 0.26 0.14 0.11 0.07 0.05 0.08 0.14 0.23 0.29 0.25 0.23 0.35 0.33 0.26 0.25 0.21 0.16 0.22 0.23 0.14 0.02 0.00 0.00 0.00 0.00 0.00 0.00 0.00 0.00 0.00 0.00 0.00 0.00 0.00 0.00 0.00 0.00 0.00
0.13 0.07 0.05 0.04 0.02 0.02 0.10 0.07 0.09 0.09 0.05 0.00 0.05 0.13 0.15 0.15 0.19 0.20 0.17 0.15 0.16 0.21 0.19 0.20 0.22 0.27 0.32 0.26 0.22 0.21 0.22 0.26 0.29 0.11 0.03 0.01 0.01 0.02 0.04 0.03 0.00 0.00 0.00 0.00 0.00 0.00 0.00 0.00 0.00 0.00 0.00 0.00 0.01 0.01
0.25 0.09 0.06 0.05 0.03 0.02 0.04 0.16 0.06 0.01 0.03 0.00 0.00 0.01 0.04 0.07 0.06 0.05 0.05 0.06 0.07 0.14 0.12 0.09 0.10 0.14 0.14 0.15 0.13 0.10 0.17 0.11 0.02 0.00 0.00 0.00 0.00 0.00 0.00 0.00 0.00 0.00 0.00 0.00 0.00 0.00 0.00 0.00 0.00 0.00 0.01 0.01 0.01 0.00
0.29 0.06 0.02 0.02 0.02 0.07 0.09 0.07 0.06 0.00 0.00 0.00 0.00 0.00 0.00 0.00 0.00 0.00 0.00 0.00 0.01 0.01 0.01 0.02 0.02 0.01 0.03 0.04 0.08 0.09 0.00 0.00 0.00 0.00 0.00 0.00 0.00 0.00 0.00 0.00 0.00 0.00 0.00 0.00 0.00 0.00 0.00 0.00 0.01 0.01 0.01 0.01 0.01 0.01
0.13 0.06 0.03 0.05 0.04 0.07 0.20 0.11 0.01 0.00 0.00 0.00 0.00 0.00 0.00 0.00 0.00 0.00 0.00 0.00 0.00 0.00 0.00 0.00 0.00 0.00 0.00 0.00 0.00 0.00 0.00 0.00 0.00 0.00 0.00 0.00 0.00 0.00 0.00 0.00 0.00 0.00 0.00 0.00 0.00 0.01 0.01 0.02 0.01 0.00 0.00 0.01 0.04 0.04
0.30 0.34 0.19 0.22 0.11 0.06 0.07 0.03 0.00 0.00 0.00 0.00 0.00 0.00 0.00 0.00 0.00 0.00 0.00 0.00 0.00 0.02 0.06 0.03 0.00 0.00 0.00 0.00 0.00 0.00 0.00 0.00 0.00 0.00 0.00 0.00 0.00 0.00 0.00 0.00 0.00 0.00 0.00 0.01 0.02 0.03 0.01 0.01 0.00 0.01 0.05 0.10 0.14 0.10
0.55 0.80 0.55 0.23 0.29 0.13 0.02 0.00 0.00 0.00 0.00 0.00 0.00 0.00 0.00 0.01 0.01 0.00 0.00 0.00 0.01 0.02 0.01 0.00 0.00 0.00 0.00 0.00 0.00 0.00 0.00 0.00 0.00 0.01 0.01 0.00 0.00 0.00 0.00 0.00 0.00 0.00 0.02 0.02 0.02 0.00 0.01 0.02 0.02 0.04 0.07 0.10 0.14 0.16
0.46 0.52 0.61 0.36 0.24 0.13 0.05 0.01 0.00 0.00 0.00 0.00 0.00 0.00 0.00 0.00 0.00 0.00 0.00 0.01 0.01 0.00 0.00 0.00 0.00 0.00 0.00 0.00 0.00 0.00 0.00 0.00 0.00 0.00 0.00 0.00 0.01 0.01 0.01 0.00 0.02 0.02 0.01 0.02 0.02 0.03 0.03 0.04 0.08 0.09 0.08 0.07 0.09 0.13
0.33 0.45 0.57 0.45 0.24 0.09 0.08 0.03 0.02 0.01 0.01 0.01 0.01 0.00 0.00 0.00 0.00 0.00 0.01 0.00 0.00 0.00 0.00 0.00 0.00 0.00 0.00 0.00 0.00 0.00 0.00 0.00 0.00 0.00 0.00 0.03 0.03 0.02 0.02 0.01 0.03 0.04 0.04 0.02 0.05 0.06 0.06 0.09 0.10 0.10 0.10 0.12 0.11 0.08
0.34 0.42 0.46 0.40 0.21 0.12 0.05 0.05 0.03 0.03 0.01 0.01 0.01 0.00 0.00 0.00 0.01 0.01 0.00 0.00 0.00 0.00 0.00 0.00 0.00 0.00 0.00 0.00 0.00 0.00 0.00 0.02 0.02 0.00 0.04 0.06 0.02 0.01 0.02 0.02 0.02 0.04 0.05 0.04 0.04 0.07 0.10 0.11 0.12 0.15 0.18 0.17 0.11 0.10
0.61 0.43 0.29 0.23 0.08 0.04 0.04 0.04 0.03 0.01 0.01 0.01 0.02 0.00 0.00 0.01 0.00 0.00 0.00 0.02 0.01 0.01 0.00 0.00 0.00 0.00 0.00 0.00 0.00 0.00 0.01 0.04 0.01 0.00 0.01 0.02 0.03 0.03 0.02 0.02 0.02 0.03 0.03 0.06 0.12 0.16 0.14 0.15 0.16 0.14 0.09 0.08 0.09 0.10
0.35 0.20 0.13 0.08 0.03 0.03 0.02 0.01 0.02 0.01 0.01 0.02 0.01 0.00 0.01 0.01 0.00 0.00 0.02 0.04 0.02 0.01 0.00 0.00 0.00 0.00 0.00 0.00 0.00 0.00 0.01 0.01 0.00 0.00 0.00 0.02 0.04 0.04 0.04 0.04 0.04 0.04 0.05 0.09 0.17 0.16 0.10 0.06 0.06 0.06 0.07 0.08 0.11 0.14
0.16 0.08 0.04 0.02 0.03 0.04 0.03 0.02 0.04 0.04 0.04 0.01 0.00 0.01 0.02 0.02 0.01 0.02 0.02 0.02 0.02 0.02 0.01 0.01 0.01 0.00 0.00 0.00 0.00 0.01 0.00 0.00 0.00 0.01 0.00 0.03 0.04 0.07 0.16 0.22 0.21 0.16 0.10 0.12 0.15 0.16 0.16 0.14 0.12 0.11 0.12 0.10 0.10 0.17
0.03 0.01 0.02 0.05 0.08 0.07 0.06 0.05 0.05 0.04 0.03 0.02 0.01 0.02 0.02 0.00 0.01 0.02 0.02 0.02 0.02 0.02 0.01 0.00 0.01 0.01 0.01 0.01 0.01 0.01 0.01 0.00 0.01 0.01 0.02 0.06 0.09 0.11 0.11 0.11 0.13 0.11 0.09 0.11 0.13 0.15 0.18 0.19 0.17 0.15 0.16 0.16 0.16 0.15
0.05 0.06 0.05 0.09 0.06 0.05 0.03 0.03 0.02 0.01 0.01 0.00 0.01 0.00 0.01 0.01 0.04 0.04 0.02 0.01 0.01 0.01 0.00 0.01 0.00 0.00 0.00 0.00 0.01 0.04 0.06 0.07 0.06 0.04 0.03 0.04 0.12 0.11 0.09 0.08 0.09 0.09 0.08 0.08 0.09 0.15 0.18 0.19 0.17 0.16 0.21 0.22 0.17 0.20
0.03 0.02 0.03 0.01 0.01 0.02 0.01 0.01 0.01 0.00 0.01 0.01 0.01 0.03 0.02 0.02 0.04 0.03 0.01 0.01 0.01 0.02 0.02 0.02 0.03 0.02 0.03 0.04 0.03 0.05 0.10 0.09 0.11 0.17 0.16 0.12 0.11 0.09 0.07 0.07 0.07 0.07 0.08 0.10 0.09 0.06 0.10 0.13 0.15 0.22 0.23 0.20 0.25 0.30
0.01 0.01 0.01 0.01 0.01 0.01 0.01 0.01 0.01 0.00 0.00 0.00 0.00 0.03 0.05 0.03 0.04 0.02 0.02 0.03 0.02 0.02 0.02 0.02 0.04 0.07 0.07 0.08 0.10 0.11 0.13 0.14 0.14 0.14 0.14 0.13 0.11 0.09 0.08 0.06 0.05 0.06 0.07 0.09 0.09 0.09 0.12 0.15 0.21 0.24 0.24 0.21 0.21 0.20
0.02 0.02 0.02 0.02 0.02 0.02 0.04 0.02 0.02 0.02 0.01 0.01 0.02 0.01 0.03 0.03 0.05 0.11 0.06 0.03 0.03 0.04 0.06 0.08 0.10 0.13 0.17 0.17 0.18 0.18 0.17 0.15 0.13 0.12 0.12 0.11 0.10 0.09 0.07 0.06 0.06 0.07 0.07 0.07 0.08 0.09 0.10 0.12 0.15 0.12 0.13 0.11 0.11 0.11
0.02 0.03 0.04 0.03 0.01 0.01 0.00 0.03 0.03 0.01 0.00 0.01 0.03 0.03 0.04 0.08 0.20 0.20 0.10 0.09 0.13 0.15 0.17 0.18 0.19 0.21 0.23 0.21 0.19 0.17 0.14 0.12 0.11 0.09 0.08 0.07 0.05 0.04 0.04 0.04 0.06 0.07 0.07 0.08 0.08 0.09 0.08 0.07 0.08 0.09 0.10 0.10 0.10 0.09

GFSWCAN_prec_precacc_033.txt.gz
Total_Precipitation_Accumulation
0.49 0.15 0.02 0.02 0.00 0.00 0.00 0.00 0.00 0.00 0.00 0.01 0.00 0.00 0.00 0.00 0.00 0.00 0.00 0.02 0.04 0.01 0.00 0.00 0.00 0.00 0.00 0.00 0.01 0.00 0.00 0.00 0.00 0.00 0.00 0.00 0.00 0.00 0.00 0.00 0.00 0.00 0.00 0.01 0.02 0.05 0.01 0.00 0.01 0.06 0.05 0.02 0.04 0.02
0.52 0.34 0.11 0.05 0.00 0.00 0.00 0.00 0.00 0.00 0.00 0.00 0.01 0.01 0.00 0.00 0.00 0.00 0.00 0.01 0.03 0.03 0.01 0.00 0.00 0.00 0.00 0.00 0.01 0.01 0.01 0.01 0.01 0.00 0.00 0.00 0.00 0.00 0.00 0.00 0.00 0.00 0.00 0.00 0.02 0.01 0.00 0.00 0.01 0.01 0.02 0.03 0.01 0.02
0.50 0.39 0.29 0.14 0.01 0.00 0.00 0.00 0.00 0.00 0.00 0.00 0.00 0.01 0.00 0.00 0.00 0.00 0.00 0.01 0.02 0.01 0.00 0.00 0.00 0.00 0.00 0.00 0.01 0.03 0.00 0.02 0.03 0.03 0.04 0.04 0.07 0.03 0.03 0.01 0.00 0.02 0.00 0.00 0.01 0.00 0.00 0.01 0.01 0.00 0.01 0.05 0.07 0.13
0.57 0.48 0.39 0.27 0.10 0.02 0.00 0.00 0.00 0.01 0.01 0.01 0.01 0.01 0.00 0.00 0.00 0.00 0.00 0.02 0.04 0.04 0.04 0.00 0.00 0.00 0.00 0.00 0.00 0.01 0.02 0.03 0.08 0.11 0.13 0.14 0.15 0.06 0.04 0.01 0.02 0.03 0.04 0.02 0.03 0.01 0.01 0.02 0.03 0.08 0.18 0.26 0.24 0.18
0.50 0.50 0.49 0.36 0.25 0.12 0.04 0.00 0.01 0.01 0.01 0.02 0.02 0.02 0.00 0.00 0.01 0.01 0.01 0.01 0.03 0.08 0.05 0.01 0.00 0.00 0.00 0.00 0.00 0.00 0.02 0.05 0.10 0.10 0.07 0.02 0.01 0.01 0.02 0.03 0.07 0.02 0.01 0.04 0.04 0.05 0.10 0.12 0.23 0.42 0.32 0.21 0.21 0.15
0.45 0.41 0.41 0.35 0.29 0.26 0.14 0.06 0.01 0.01 0.02 0.02 0.02 0.02 0.02 0.01 0.04 0.07 0.06 0.01 0.00 0.05 0.28 0.14 0.01 0.00 0.00 0.00 0.00 0.00 0.00 0.03 0.08 0.04 0.02 0.01 0.00 0.04 0.09 0.05 0.01 0.00 0.00 0.04 0.06 0.05 0.15 0.27 0.25 0.14 0.13 0.10 0.05 0.01
0.35 0.30 0.29 0.30 0.29 0.32 0.33 0.18 0.09 0.02 0.01 0.01 0.02 0.03 0.06 0.15 0.25 0.26 0.15 0.04 0.01 0.09 0.36 0.24 0.04 0.00 0.00 0.00 0.00 0.00 0.00 0.02 0.05 0.06 0.03 0.01 0.01 0.19 0.23 0.10 0.01 0.00 0.02 0.02 0.03 0.09 0.13 0.13 0.11 0.06 0.02 0.00 0.00 0.00
0.28 0.23 0.18 0.16 0.15 0.16 0.27 0.35 0.22 0.14 0.06 0.04 0.03 0.09 0.31 0.68 0.62 0.42 0.23 0.26 0.25 0.28 0.46 0.38 0.11 0.02 0.00 0.00 0.00 0.00 0.00 0.00 0.03 0.04 0.04 0.04 0.03 0.12 0.21 0.04 0.00 0.00 0.00 0.01 0.01 0.03 0.08 0.06 0.01 0.00 0.00 0.00 0.01 0.01
0.18 0.14 0.10 0.06 0.04 0.05 0.09 0.22 0.33 0.31 0.28 0.27 0.36 0.45 0.51 0.43 0.29 0.32 0.47 0.58 0.79 0.87 0.80 0.33 0.05 0.03 0.04 0.02 0.02 0.02 0.02 0.03 0.05 0.03 0.01 0.02 0.02 0.04 0.02 0.00 0.00 0.00 0.01 0.00 0.00 0.00 0.00 0.01 0.01 0.01 0.02 0.03 0.02 0.00
0.09 0.05 0.03 0.02 0.01 0.01 0.02 0.11 0.28 0.47 0.84 1.22 1.17 0.91 0.68 0.51 0.60 0.44 0.47 0.62 0.84 0.87 0.66 0.28 0.06 0.04 0.02 0.02 0.04 0.07 0.13 0.11 0.09 0.01 0.00 0.01 0.01 0.00 0.00 0.00 0.00 0.00 0.00 0.00 0.01 0.02 0.02 0.01 0.01 0.03 0.04 0.01 0.00 0.00
0.06 0.04 0.01 0.00 0.00 0.00 0.01 0.07 0.26 0.73 1.50 1.84 1.64 1.13 0.73 0.70 0.40 0.57 0.73 0.56 0.45 0.32 0.24 0.15 0.08 0.05 0.03 0.08 0.16 0.25 0.20 0.08 0.07 0.00 0.03 0.03 0.01 0.00 0.00 0.00 0.00 0.02 0.02 0.01 0.01 0.01 0.03 0.08 0.12 0.05 0.00 0.00 0.00 0.00
0.01 0.02 0.00 0.00 0.00 0.01 0.03 0.12 0.31 0.51 0.98 1.31 1.05 0.80 0.76 0.86 0.86 0.92 0.84 0.40 0.18 0.09 0.04 0.02 0.03 0.05 0.16 0.16 0.20 0.32 0.18 0.13 0.07 0.01 0.07 0.05 0.00 0.00 0.00 0.01 0.02 0.01 0.01 0.03 0.09 0.13 0.12 0.07 0.02 0.00 0.00 0.00 0.00 0.00
0.00 0.00 0.00 0.00 0.01 0.02 0.04 0.10 0.16 0.31 0.51 0.76 0.97 1.31 1.42 1.52 1.30 0.96 0.45 0.19 0.08 0.03 0.02 0.02 0.05 0.10 0.15 0.18 0.31 0.30 0.29 0.23 0.07 0.08 0.05 0.01 0.01 0.02 0.05 0.03 0.03 0.02 0.05 0.10 0.06 0.01 0.00 0.00 0.00 0.00 0.00 0.00 0.00 0.00
0.02 0.01 0.01 0.00 0.00 0.03 0.04 0.08 0.12 0.17 0.23 0.58 0.90 1.20 1.01 1.02 0.64 0.38 0.15 0.05 0.03 0.03 0.03 0.03 0.09 0.10 0.12 0.19 0.34 0.43 0.43 0.22 0.23 0.11 0.03 0.09 0.16 0.11 0.02 0.00 0.00 0.00 0.00 0.00 0.00 0.00 0.00 0.00 0.00 0.00 0.00 0.00 0.00 0.00
0.06 0.02 0.03 0.03 0.01 0.02 0.10 0.09 0.11 0.04 0.03 0.13 0.25 0.46 0.47 0.39 0.26 0.14 0.12 0.07 0.07 0.10 0.16 0.26 0.33 0.28 0.26 0.39 0.36 0.28 0.28 0.23 0.19 0.24 0.27 0.21 0.06 0.01 0.00 0.03 0.01 0.00 0.00 0.00 0.00 0.00 0.00 0.00 0.00 0.00 0.00 0.00 0.00 0.00
0.13 0.07 0.05 0.04 0.02 0.02 0.10 0.07 0.09 0.09 0.05 0.00 0.05 0.13 0.15 0.15 0.19 0.20 0.17 0.16 0.16 0.22 0.21 0.23 0.25 0.32 0.39 0.32 0.26 0.25 0.27 0.28 0.30 0.13 0.05 0.01 0.01 0.03 0.07 0.06 0.00 0.00 0.00 0.00 0.00 0.00 0.00 0.00 0.00 0.00 0.00 0.00 0.01 0.01
0.25 0.09 0.06 0.05 0.03 0.02 0.04 0.16 0.06 0.01 0.03 0.00 0.00 0.01 0.04 0.07 0.06 0.05 0.05 0.06 0.07 0.14 0.12 0.09 0.10 0.15 0.16 0.18 0.16 0.15 0.21 0.14 0.04 0.01 0.00 0.00 0.00 0.00 0.00 0.00 0.00 0.00 0.00 0.00 0.00 0.00 0.00 0.00 0.00 0.00 0.01 0.01 0.01 0.00
0.29 0.06 0.02 0.02 0.02 0.07 0.09 0.07 0.06 0.00 0.00 0.00 0.00 0.00 0.00 0.00 0.01 0.01 0.00 0.00 0.01 0.01 0.01 0.02 0.02 0.01 0.03 0.04 0.10 0.10 0.00 0.00 0.00 0.00 0.00 0.00 0.00 0.00 0.00 0.00 0.00 0.00 0.00 0.00 0.00 0.00 0.00 0.00 0.01 0.01 0.01 0.01 0.01 0.01
0.13 0.06 0.03 0.05 0.04 0.07 0.20 0.11 0.01 0.00 0.00 0.00 0.00 0.01 0.00 0.00 0.00 0.00 0.00 0.00 0.00 0.00 0.00 0.00 0.00 0.00 0.00 0.00 0.00 0.00 0.00 0.00 0.00 0.00 0.00 0.00 0.00 0.00 0.00 0.00 0.00 0.00 0.00 0.00 0.00 0.01 0.01 0.02 0.01 0.00 0.00 0.01 0.04 0.04
0.30 0.34 0.19 0.22 0.11 0.06 0.07 0.03 0.00 0.00 0.00 0.00 0.00 0.00 0.00 0.00 0.01 0.01 0.00 0.00 0.00 0.02 0.06 0.03 0.00 0.00 0.00 0.00 0.00 0.00 0.00 0.00 0.00 0.00 0.00 0.00 0.00 0.00 0.00 0.00 0.00 0.00 0.00 0.01 0.02 0.03 0.01 0.01 0.00 0.01 0.05 0.10 0.14 0.10
0.55 0.80 0.55 0.23 0.29 0.13 0.02 0.00 0.00 0.00 0.00 0.00 0.00 0.00 0.00 0.01 0.01 0.00 0.00 0.00 0.01 0.02 0.01 0.00 0.00 0.00 0.00 0.00 0.00 0.00 0.00 0.00 0.00 0.01 0.01 0.00 0.00 0.00 0.00 0.00 0.00 0.00 0.02 0.02 0.02 0.00 0.01 0.02 0.02 0.04 0.07 0.10 0.14 0.17
0.46 0.52 0.61 0.36 0.24 0.13 0.05 0.01 0.00 0.00 0.00 0.00 0.00 0.00 0.00 0.00 0.00 0.00 0.00 0.01 0.01 0.00 0.00 0.00 0.00 0.00 0.00 0.00 0.00 0.00 0.00 0.00 0.00 0.00 0.00 0.00 0.01 0.01 0.01 0.00 0.02 0.02 0.01 0.02 0.02 0.03 0.03 0.04 0.08 0.09 0.08 0.07 0.09 0.13
0.33 0.45 0.57 0.45 0.24 0.09 0.08 0.03 0.02 0.01 0.01 0.01 0.01 0.00 0.00 0.00 0.00 0.00 0.01 0.00 0.00 0.00 0.00 0.00 0.00 0.00 0.00 0.00 0.00 0.00 0.00 0.00 0.00 0.00 0.00 0.03 0.03 0.02 0.02 0.01 0.03 0.04 0.04 0.02 0.05 0.06 0.06 0.09 0.10 0.10 0.10 0.12 0.12 0.10
0.34 0.42 0.46 0.40 0.21 0.12 0.05 0.06 0.05 0.05 0.03 0.01 0.02 0.01 0.00 0.00 0.01 0.01 0.00 0.01 0.01 0.00 0.00 0.00 0.00 0.00 0.00 0.00 0.00 0.00 0.00 0.02 0.02 0.00 0.04 0.06 0.02 0.01 0.02 0.02 0.02 0.04 0.05 0.04 0.04 0.07 0.10 0.11 0.12 0.15 0.18 0.17 0.11 0.10
0.61 0.43 0.29 0.23 0.08 0.04 0.04 0.04 0.04 0.02 0.02 0.02 0.02 0.01 0.00 0.01 0.00 0.00 0.00 0.03 0.02 0.02 0.01 0.00 0.00 0.00 0.00 0.00 0.00 0.00 0.01 0.04 0.01 0.00 0.01 0.02 0.03 0.03 0.02 0.02 0.02 0.03 0.03 0.06 0.12 0.16 0.14 0.15 0.16 0.14 0.09 0.08 0.09 0.10
0.35 0.20 0.14 0.09 0.04 0.03 0.02 0.01 0.02 0.02 0.02 0.04 0.03 0.01 0.01 0.01 0.00 0.00 0.02 0.05 0.03 0.03 0.02 0.01 0.01 0.01 0.01 0.00 0.00 0.00 0.01 0.01 0.00 0.00 0.01 0.02 0.04 0.04 0.04 0.04 0.04 0.04 0.05 0.09 0.17 0.16 0.11 0.06 0.06 0.06 0.07 0.08 0.11 0.14
0.16 0.08 0.04 0.02 0.05 0.08 0.07 0.04 0.05 0.07 0.06 0.04 0.01 0.02 0.03 0.03 0.01 0.02 0.03 0.04 0.04 0.04 0.01 0.01 0.01 0.01 0.01 0.01 0.00 0.01 0.00 0.00 0.00 0.01 0.01 0.03 0.04 0.07 0.16 0.22 0.21 0.16 0.10 0.12 0.15 0.16 0.17 0.14 0.12 0.11 0.12 0.10 0.10 0.18
0.04 0.01 0.02 0.06 0.12 0.12 0.10 0.08 0.09 0.08 0.09 0.07 0.05 0.06 0.06 0.02 0.02 0.03 0.03 0.04 0.03 0.03 0.01 0.00 0.01 0.01 0.01 0.01 0.01 0.01 0.01 0.00 0.01 0.02 0.02 0.06 0.09 0.11 0.11 0.11 0.13 0.11 0.09 0.11 0.13 0.15 0.18 0.19 0.17 0.16 0.16 0.17 0.17 0.17
0.07 0.08 0.08 0.12 0.10 0.10 0.10 0.09 0.09 0.08 0.07 0.07 0.04 0.03 0.02 0.02 0.05 0.05 0.04 0.03 0.02 0.01 0.00 0.01 0.01 0.01 0.00 0.00 0.01 0.04 0.06 0.07 0.06 0.04 0.03 0.04 0.12 0.11 0.09 0.08 0.09 0.09 0.08 0.08 0.09 0.15 0.18 0.19 0.18 0.17 0.23 0.25 0.19 0.22
0.05 0.05 0.05 0.02 0.03 0.04 0.03 0.03 0.03 0.02 0.02 0.01 0.01 0.03 0.02 0.03 0.06 0.04 0.02 0.01 0.01 0.02 0.03 0.03 0.03 0.02 0.03 0.04 0.03 0.05 0.10 0.09 0.11 0.17 0.16 0.13 0.11 0.10 0.07 0.07 0.07 0.07 0.08 0.10 0.09 0.06 0.10 0.13 0.15 0.22 0.24 0.21 0.26 0.30
0.01 0.02 0.01 0.01 0.02 0.01 0.01 0.02 0.01 0.01 0.01 0.00 0.01 0.03 0.05 0.04 0.05 0.02 0.02 0.04 0.03 0.02 0.02 0.02 0.04 0.07 0.07 0.08 0.10 0.11 0.13 0.14 0.14 0.14 0.14 0.13 0.11 0.09 0.08 0.06 0.05 0.06 0.07 0.09 0.09 0.09 0.12 0.15 0.21 0.24 0.24 0.21 0.21 0.20
0.02 0.02 0.02 0.02 0.02 0.02 0.04 0.02 0.02 0.02 0.01 0.01 0.02 0.02 0.03 0.03 0.05 0.11 0.07 0.03 0.03 0.04 0.06 0.08 0.10 0.13 0.17 0.17 0.18 0.18 0.17 0.15 0.13 0.12 0.12 0.12 0.10 0.09 0.07 0.06 0.06 0.07 0.07 0.07 0.08 0.09 0.10 0.12 0.15 0.12 0.13 0.11 0.11 0.11
0.02 0.03 0.04 0.03 0.01 0.01 0.00 0.03 0.03 0.01 0.01 0.02 0.04 0.04 0.04 0.09 0.20 0.21 0.11 0.09 0.13 0.15 0.17 0.18 0.19 0.21 0.23 0.21 0.19 0.17 0.14 0.12 0.11 0.09 0.08 0.07 0.05 0.04 0.04 0.04 0.06 0.07 0.07 0.08 0.08 0.09 0.08 0.07 0.08 0.09 0.10 0.10 0.10 0.09

GFSWCAN_prec_precacc_036.txt.gz
Total_Precipitation_Accumulation
0.49 0.15 0.02 0.02 0.00 0.00 0.00 0.00 0.01 0.00 0.00 0.01 0.01 0.00 0.00 0.00 0.00 0.01 0.03 0.02 0.04 0.01 0.00 0.00 0.00 0.00 0.00 0.00 0.01 0.00 0.00 0.00 0.00 0.00 0.00 0.00 0.00 0.00 0.00 0.00 0.00 0.00 0.00 0.01 0.02 0.05 0.01 0.00 0.01 0.06 0.05 0.02 0.04 0.02
0.52 0.34 0.11 0.05 0.00 0.00 0.00 0.00 0.01 0.00 0.00 0.01 0.01 0.01 0.00 0.00 0.00 0.01 0.03 0.02 0.03 0.03 0.01 0.00 0.00 0.00 0.00 0.00 0.01 0.01 0.01 0.01 0.01 0.00 0.00 0.00 0.00 0.00 0.00 0.00 0.00 0.00 0.00 0.00 0.02 0.01 0.00 0.00 0.01 0.01 0.02 0.03 0.01 0.02
0.50 0.39 0.29 0.14 0.01 0.00 0.00 0.00 0.00 0.00 0.00 0.01 0.01 0.01 0.00 0.00 0.00 0.01 0.01 0.01 0.02 0.01 0.00 0.00 0.00 0.00 0.00 0.00 0.01 0.03 0.00 0.02 0.03 0.03 0.04 0.04 0.07 0.03 0.03 0.01 0.00 0.02 0.00 0.00 0.01 0.00 0.00 0.01 0.01 0.00 0.01 0.05 0.07 0.13
0.57 0.48 0.39 0.28 0.10 0.02 0.00 0.00 0.01 0.01 0.01 0.01 0.01 0.01 0.00 0.00 0.00 0.00 0.00 0.02 0.04 0.04 0.04 0.00 0.00 0.00 0.00 0.00 0.00 0.01 0.02 0.03 0.08 0.11 0.13 0.14 0.15 0.06 0.04 0.01 0.02 0.03 0.04 0.02 0.03 0.01 0.01 0.02 0.03 0.08 0.18 0.26 0.24 0.18
0.51 0.51 0.50 0.37 0.25 0.12 0.04 0.01 0.01 0.01 0.02 0.02 0.02 0.02 0.00 0.00 0.01 0.01 0.01 0.01 0.03 0.08 0.05 0.01 0.00 0.00 0.00 0.00 0.00 0.00 0.02 0.05 0.10 0.10 0.07 0.02 0.01 0.01 0.02 0.03 0.07 0.02 0.01 0.04 0.04 0.05 0.10 0.12 0.23 0.42 0.32 0.21 0.21 0.15
0.47 0.43 0.44 0.37 0.29 0.26 0.15 0.06 0.01 0.01 0.02 0.02 0.02 0.02 0.02 0.01 0.04 0.07 0.06 0.01 0.00 0.05 0.28 0.14 0.01 0.00 0.00 0.00 0.00 0.00 0.00 0.03 0.08 0.04 0.02 0.01 0.00 0.04 0.09 0.05 0.01 0.00 0.00 0.04 0.06 0.05 0.15 0.27 0.25 0.14 0.13 0.10 0.05 0.01
0.36 0.31 0.32 0.33 0.29 0.32 0.33 0.18 0.09 0.02 0.01 0.01 0.02 0.03 0.06 0.15 0.25 0.26 0.15 0.05 0.01 0.09 0.36 0.24 0.04 0.00 0.00 0.00 0.00 0.00 0.00 0.02 0.05 0.06 0.04 0.01 0.01 0.19 0.23 0.10 0.01 0.00 0.02 0.02 0.03 0.09 0.13 0.13 0.11 0.06 0.02 0.00 0.00 0.00
0.29 0.25 0.22 0.21 0.17 0.16 0.27 0.35 0.22 0.14 0.06 0.04 0.03 0.09 0.31 0.68 0.62 0.42 0.23 0.26 0.25 0.28 0.46 0.38 0.11 0.02 0.00 0.00 0.00 0.00 0.00 0.00 0.03 0.04 0.05 0.04 0.03 0.12 0.21 0.04 0.00 0.00 0.00 0.01 0.01 0.03 0.08 0.06 0.01 0.00 0.00 0.00 0.01 0.04
0.20 0.15 0.13 0.11 0.09 0.06 0.10 0.22 0.33 0.31 0.28 0.27 0.36 0.45 0.51 0.43 0.29 0.32 0.47 0.58 0.79 0.87 0.80 0.33 0.05 0.03 0.04 0.02 0.02 0.02 0.02 0.03 0.05 0.03 0.01 0.02 0.02 0.04 0.02 0.00 0.00 0.00 0.01 0.00 0.00 0.00 0.00 0.01 0.01 0.01 0.02 0.04 0.08 0.04
0.11 0.06 0.04 0.05 0.06 0.03 0.03 0.11 0.28 0.47 0.84 1.22 1.17 0.91 0.68 0.51 0.60 0.44 0.47 0.62 0.84 0.87 0.66 0.28 0.06 0.04 0.02 0.02 0.04 0.07 0.13 0.11 0.09 0.01 0.00 0.01 0.01 0.00 0.00 0.00 0.00 0.00 0.00 0.00 0.01 0.02 0.02 0.01 0.01 0.05 0.10 0.09 0.05 0.02
0.10 0.07 0.02 0.01 0.01 0.01 0.02 0.07 0.26 0.73 1.50 1.84 1.64 1.13 0.73 0.70 0.40 0.57 0.73 0.56 0.45 0.32 0.24 0.15 0.08 0.05 0.03 0.08 0.16 0.25 0.20 0.08 0.07 0.00 0.03 0.03 0.01 0.00 0.00 0.00 0.00 0.02 0.02 0.01 0.01 0.01 0.04 0.12 0.22 0.17 0.07 0.02 0.00 0.00
0.06 0.08 0.06 0.01 0.00 0.01 0.03 0.12 0.31 0.51 0.98 1.31 1.05 0.80 0.76 0.86 0.86 0.92 0.84 0.40 0.18 0.09 0.04 0.02 0.03 0.05 0.16 0.16 0.20 0.32 0.18 0.13 0.07 0.01 0.07 0.05 0.00 0.00 0.00 0.01 0.02 0.01 0.01 0.04 0.11 0.18 0.19 0.13 0.04 0.00 0.00 0.00 0.00 0.00
0.03 0.04 0.04 0.03 0.02 0.03 0.05 0.12 0.16 0.31 0.51 0.76 0.97 1.31 1.42 1.52 1.30 0.96 0.45 0.19 0.08 0.03 0.02 0.02 0.05 0.10 0.15 0.18 0.31 0.30 0.30 0.23 0.08 0.09 0.07 0.03 0.01 0.03 0.06 0.05 0.04 0.03 0.06 0.10 0.06 0.01 0.00 0.00 0.00 0.00 0.00 0.00 0.00 0.00
0.02 0.01 0.02 0.03 0.04 0.05 0.07 0.12 0.14 0.17 0.23 0.59 0.90 1.20 1.01 1.02 0.64 0.38 0.15 0.05 0.03 0.03 0.03 0.03 0.09 0.10 0.12 0.20 0.38 0.47 0.47 0.24 0.25 0.13 0.04 0.12 0.21 0.14 0.02 0.00 0.00 0.00 0.00 0.00 0.00 0.00 0.00 0.00 0.00 0.00 0.00 0.00 0.00 0.00
0.06 0.02 0.03 0.03 0.01 0.02 0.11 0.10 0.13 0.04 0.05 0.16 0.28 0.48 0.49 0.39 0.26 0.14 0.12 0.08 0.07 0.10 0.17 0.26 0.33 0.28 0.27 0.41 0.39 0.30 0.29 0.24 0.20 0.25 0.28 0.24 0.12 0.01 0.01 0.05 0.01 0.00 0.00 0.00 0.00 0.00 0.00 0.00 0.00 0.00 0.00 0.00 0.00 0.00
0.13 0.07 0.05 0.04 0.02 0.02 0.10 0.07 0.09 0.09 0.06 0.01 0.06 0.14 0.16 0.16 0.19 0.20 0.18 0.16 0.17 0.23 0.22 0.24 0.27 0.35 0.42 0.34 0.27 0.26 0.28 0.29 0.30 0.15 0.06 0.03 0.02 0.04 0.09 0.06 0.00 0.00 0.00 0.00 0.00 0.00 0.00 0.00 0.00 0.00 0.00 0.00 0.01 0.01
0.25 0.09 0.06 0.05 0.03 0.02 0.04 0.16 0.06 0.01 0.03 0.00 0.00 0.01 0.04 0.07 0.07 0.05 0.05 0.06 0.07 0.14 0.12 0.10 0.11 0.16 0.18 0.19 0.18 0.16 0.22 0.14 0.05 0.03 0.01 0.00 0.00 0.00 0.00 0.00 0.00 0.00 0.00 0.00 0.00 0.00 0.00 0.00 0.00 0.00 0.01 0.01 0.01 0.00
0.29 0.06 0.02 0.02 0.02 0.07 0.09 0.07 0.06 0.00 0.00 0.00 0.00 0.00 0.00 0.00 0.01 0.01 0.00 0.00 0.01 0.01 0.01 0.02 0.02 0.01 0.03 0.04 0.10 0.10 0.00 0.00 0.00 0.00 0.00 0.00 0.00 0.00 0.00 0.00 0.00 0.00 0.00 0.00 0.00 0.00 0.00 0.00 0.01 0.01 0.01 0.01 0.01 0.01
0.13 0.06 0.03 0.05 0.04 0.07 0.20 0.11 0.01 0.00 0.00 0.00 0.00 0.01 0.00 0.01 0.00 0.00 0.00 0.00 0.00 0.00 0.00 0.00 0.00 0.00 0.00 0.00 0.00 0.00 0.00 0.00 0.00 0.00 0.00 0.00 0.00 0.00 0.00 0.00 0.00 0.00 0.00 0.00 0.00 0.01 0.01 0.02 0.01 0.00 0.00 0.01 0.04 0.04
0.30 0.34 0.19 0.22 0.11 0.06 0.07 0.03 0.00 0.00 0.00 0.00 0.00 0.00 0.01 0.01 0.01 0.01 0.00 0.00 0.00 0.02 0.06 0.03 0.00 0.00 0.00 0.00 0.00 0.00 0.00 0.00 0.00 0.00 0.00 0.00 0.00 0.00 0.00 0.00 0.00 0.00 0.00 0.01 0.02 0.03 0.01 0.01 0.00 0.01 0.05 0.10 0.14 0.10
0.55 0.80 0.55 0.23 0.29 0.13 0.02 0.00 0.00 0.00 0.00 0.00 0.00 0.00 0.01 0.01 0.01 0.00 0.00 0.00 0.01 0.02 0.01 0.00 0.00 0.00 0.00 0.00 0.00 0.00 0.00 0.00 0.00 0.01 0.01 0.00 0.00 0.00 0.00 0.00 0.00 0.00 0.02 0.02 0.02 0.00 0.01 0.02 0.02 0.04 0.07 0.11 0.14 0.17
0.46 0.52 0.61 0.36 0.24 0.13 0.05 0.01 0.00 0.00 0.00 0.00 0.00 0.00 0.00 0.01 0.01 0.00 0.00 0.01 0.01 0.00 0.00 0.00 0.00 0.00 0.00 0.00 0.00 0.00 0.00 0.00 0.00 0.00 0.00 0.00 0.01 0.01 0.01 0.00 0.02 0.02 0.01 0.02 0.02 0.03 0.03 0.05 0.08 0.09 0.08 0.07 0.10 0.13
0.33 0.45 0.57 0.45 0.24 0.09 0.08 0.03 0.02 0.01 0.01 0.02 0.02 0.01 0.00 0.00 0.00 0.00 0.01 0.00 0.00 0.00 0.00 0.00 0.00 0.00 0.00 0.00 0.00 0.00 0.00 0.00 0.00 0.00 0.00 0.03 0.03 0.02 0.02 0.01 0.03 0.04 0.04 0.02 0.05 0.06 0.06 0.09 0.10 0.10 0.10 0.12 0.12 0.10
0.34 0.42 0.46 0.40 0.21 0.12 0.05 0.06 0.05 0.05 0.03 0.02 0.02 0.01 0.01 0.01 0.01 0.02 0.01 0.01 0.01 0.00 0.00 0.00 0.00 0.00 0.00 0.00 0.00 0.00 0.00 0.02 0.02 0.00 0.04 0.06 0.02 0.01 0.02 0.02 0.02 0.04 0.05 0.04 0.04 0.07 0.10 0.11 0.12 0.15 0.18 0.17 0.11 0.11
0.61 0.43 0.29 0.23 0.08 0.04 0.04 0.04 0.04 0.03 0.02 0.02 0.03 0.01 0.00 0.01 0.01 0.01 0.01 0.04 0.03 0.03 0.02 0.02 0.01 0.01 0.01 0.01 0.01 0.00 0.01 0.04 0.01 0.00 0.01 0.02 0.03 0.03 0.02 0.02 0.02 0.03 0.03 0.06 0.12 0.16 0.14 0.15 0.16 0.14 0.09 0.08 0.10 0.10
0.35 0.20 0.14 0.09 0.04 0.03 0.02 0.01 0.02 0.02 0.03 0.06 0.05 0.03 0.02 0.02 0.01 0.01 0.03 0.07 0.05 0.05 0.04 0.03 0.02 0.02 0.02 0.02 0.01 0.01 0.01 0.01 0.00 0.00 0.01 0.02 0.04 0.04 0.04 0.04 0.04 0.04 0.05 0.09 0.17 0.17 0.11 0.06 0.06 0.06 0.07 0.08 0.12 0.15
0.16 0.09 0.04 0.02 0.05 0.09 0.08 0.04 0.05 0.08 0.08 0.08 0.04 0.04 0.06 0.06 0.02 0.04 0.04 0.06 0.06 0.06 0.03 0.02 0.01 0.01 0.01 0.01 0.01 0.01 0.00 0.00 0.00 0.01 0.01 0.03 0.04 0.07 0.16 0.22 0.21 0.16 0.10 0.12 0.15 0.16 0.17 0.14 0.12 0.11 0.12 0.10 0.10 0.19
0.04 0.01 0.02 0.06 0.12 0.14 0.13 0.10 0.11 0.10 0.11 0.12 0.09 0.11 0.13 0.07 0.05 0.06 0.06 0.07 0.06 0.04 0.02 0.01 0.01 0.01 0.01 0.01 0.01 0.01 0.01 0.01 0.01 0.02 0.02 0.06 0.09 0.11 0.11 0.11 0.13 0.11 0.09 0.11 0.13 0.15 0.18 0.20 0.18 0.16 0.16 0.18 0.18 0.17
0.08 0.09 0.09 0.13 0.12 0.13 0.13 0.13 0.15 0.14 0.13 0.13 0.09 0.08 0.07 0.05 0.07 0.07 0.06 0.05 0.04 0.01 0.01 0.01 0.01 0.01 0.00 0.01 0.01 0.04 0.06 0.07 0.06 0.04 0.03 0.04 0.12 0.12 0.09 0.08 0.09 0.09 0.08 0.08 0.09 0.15 0.18 0.20 0.18 0.18 0.23 0.26 0.20 0.22
0.06 0.07 0.06 0.03 0.05 0.06 0.04 0.05 0.05 0.04 0.04 0.04 0.03 0.04 0.02 0.04 0.07 0.05 0.03 0.02 0.02 0.03 0.03 0.03 0.03 0.02 0.03 0.04 0.03 0.05 0.10 0.09 0.11 0.17 0.16 0.13 0.12 0.10 0.07 0.07 0.07 0.07 0.08 0.10 0.09 0.06 0.10 0.13 0.15 0.22 0.24 0.21 0.26 0.30
0.01 0.02 0.02 0.02 0.02 0.02 0.02 0.02 0.02 0.03 0.02 0.01 0.01 0.03 0.06 0.04 0.06 0.04 0.03 0.05 0.03 0.02 0.02 0.02 0.04 0.07 0.07 0.08 0.10 0.11 0.13 0.14 0.14 0.14 0.14 0.13 0.11 0.10 0.08 0.06 0.05 0.06 0.07 0.09 0.09 0.09 0.12 0.15 0.21 0.24 0.24 0.21 0.21 0.20
0.03 0.02 0.03 0.02 0.03 0.02 0.04 0.02 0.02 0.02 0.01 0.01 0.03 0.02 0.04 0.04 0.06 0.12 0.08 0.04 0.03 0.04 0.06 0.08 0.10 0.13 0.17 0.17 0.18 0.18 0.17 0.15 0.13 0.12 0.12 0.12 0.11 0.09 0.07 0.06 0.06 0.07 0.07 0.07 0.08 0.09 0.10 0.12 0.15 0.12 0.13 0.11 0.11 0.11
0.02 0.04 0.04 0.03 0.01 0.01 0.01 0.03 0.03 0.02 0.01 0.02 0.04 0.04 0.05 0.09 0.21 0.21 0.11 0.09 0.13 0.15 0.17 0.18 0.19 0.21 0.23 0.21 0.19 0.17 0.14 0.12 0.11 0.09 0.08 0.07 0.05 0.04 0.04 0.04 0.06 0.07 0.07 0.08 0.08 0.09 0.08 0.07 0.08 0.09 0.10 0.10 0.10 0.09